Wetterdaten: Montag, 10.10.2016
Datum Zeit Temp. A. Feuchte A. Luftdruck Regen Wind Richtung Richtung Sonnenschein ET UV Solar Taupunkt Windchill Windben Empfang
10.10.2016 00:00 4,1 C 95 % 1023,1 hPa 0,0 l/m 0,0 km/h (0 Bft) O 101 0 min 0,000 mm 0,0 UV-I 0 W/m 3,4 C 4,1 C 0,0 km/h (0 Bft) 98,00 %
10.10.2016 00:02 4,1 C 96 % 1023,1 hPa 0,0 l/m 0,0 km/h (0 Bft) O 101 0 min 0,000 mm 0,0 UV-I 0 W/m 3,5 C 4,1 C 1,6 km/h (1 Bft) 94,74 %
10.10.2016 00:04 4,1 C 96 % 1023,1 hPa 0,0 l/m 1,4 km/h (1 Bft) O 101 0 min 0,000 mm 0,0 UV-I 0 W/m 3,5 C 4,1 C 3,2 km/h (1 Bft) 100,00 %
10.10.2016 00:06 4,1 C 96 % 1023,1 hPa 0,0 l/m 1,8 km/h (1 Bft) O 101 0 min 0,000 mm 0,0 UV-I 0 W/m 3,5 C 4,1 C 3,2 km/h (1 Bft) 97,87 %
10.10.2016 00:08 4,3 C 96 % 1023,0 hPa 0,0 l/m 1,4 km/h (1 Bft) O 101 0 min 0,000 mm 0,0 UV-I 0 W/m 3,7 C 4,3 C 1,6 km/h (1 Bft) 100,00 %
10.10.2016 00:10 4,4 C 96 % 1023,0 hPa 0,0 l/m 1,1 km/h (1 Bft) O 101 0 min 0,000 mm 0,0 UV-I 0 W/m 3,8 C 4,4 C 1,6 km/h (1 Bft) 100,00 %
10.10.2016 00:12 4,4 C 96 % 1023,1 hPa 0,0 l/m 1,0 km/h (0 Bft) O 101 0 min 0,000 mm 0,0 UV-I 0 W/m 3,8 C 4,4 C 1,6 km/h (1 Bft) 97,87 %
10.10.2016 00:14 4,5 C 96 % 1023,0 hPa 0,0 l/m 0,5 km/h (0 Bft) O 101 0 min 0,000 mm 0,0 UV-I 0 W/m 3,9 C 4,5 C 1,6 km/h (1 Bft) 100,00 %
10.10.2016 00:16 4,4 C 96 % 1023,0 hPa 0,0 l/m 0,5 km/h (0 Bft) O 101 0 min 0,000 mm 0,0 UV-I 0 W/m 3,8 C 4,4 C 1,6 km/h (1 Bft) 100,00 %
10.10.2016 00:18 4,3 C 95 % 1023,1 hPa 0,0 l/m 0,4 km/h (0 Bft) O 101 0 min 0,000 mm 0,0 UV-I 0 W/m 3,6 C 4,3 C 1,6 km/h (1 Bft) 100,00 %
10.10.2016 00:20 4,2 C 95 % 1023,1 hPa 0,0 l/m 0,8 km/h (0 Bft) O 100 0 min 0,000 mm 0,0 UV-I 0 W/m 3,5 C 4,2 C 1,6 km/h (1 Bft) 98,00 %
10.10.2016 00:22 4,2 C 95 % 1023,1 hPa 0,0 l/m 2,7 km/h (1 Bft) O 99 0 min 0,000 mm 0,0 UV-I 0 W/m 3,5 C 4,2 C 3,2 km/h (1 Bft) 96,00 %
10.10.2016 00:24 4,2 C 96 % 1023,1 hPa 0,0 l/m 3,4 km/h (1 Bft) O 95 0 min 0,000 mm 0,0 UV-I 0 W/m 3,6 C 4,2 C 4,8 km/h (1 Bft) 97,37 %
10.10.2016 00:26 4,2 C 96 % 1023,1 hPa 0,0 l/m 2,9 km/h (1 Bft) O 88 0 min 0,000 mm 0,0 UV-I 0 W/m 3,6 C 4,2 C 4,8 km/h (1 Bft) 95,74 %
10.10.2016 00:28 4,2 C 96 % 1023,1 hPa 0,0 l/m 3,3 km/h (1 Bft) O 88 0 min 0,000 mm 0,0 UV-I 0 W/m 3,6 C 4,2 C 4,8 km/h (1 Bft) 93,62 %
10.10.2016 00:30 4,2 C 96 % 1023,1 hPa 0,0 l/m 1,8 km/h (1 Bft) O 88 0 min 0,000 mm 0,0 UV-I 0 W/m 3,6 C 4,2 C 3,2 km/h (1 Bft) 95,74 %
10.10.2016 00:32 4,1 C 95 % 1023,1 hPa 0,0 l/m 2,0 km/h (1 Bft) O 88 0 min 0,000 mm 0,0 UV-I 0 W/m 3,4 C 4,1 C 3,2 km/h (1 Bft) 97,87 %
10.10.2016 00:34 4,0 C 95 % 1023,1 hPa 0,0 l/m 1,5 km/h (1 Bft) O 88 0 min 0,000 mm 0,0 UV-I 0 W/m 3,3 C 4,0 C 3,2 km/h (1 Bft) 97,87 %
10.10.2016 00:36 4,0 C 96 % 1023,1 hPa 0,0 l/m 1,2 km/h (1 Bft) O 88 0 min 0,000 mm 0,0 UV-I 0 W/m 3,4 C 4,0 C 1,6 km/h (1 Bft) 97,87 %
10.10.2016 00:38 4,0 C 96 % 1023,1 hPa 0,0 l/m 1,4 km/h (1 Bft) O 88 0 min 0,000 mm 0,0 UV-I 0 W/m 3,4 C 4,0 C 3,2 km/h (1 Bft) 98,00 %
10.10.2016 00:40 3,9 C 96 % 1023,1 hPa 0,0 l/m 1,0 km/h (0 Bft) O 88 0 min 0,000 mm 0,0 UV-I 0 W/m 3,3 C 3,9 C 1,6 km/h (1 Bft) 95,74 %
10.10.2016 00:42 3,9 C 96 % 1023,1 hPa 0,0 l/m 1,9 km/h (1 Bft) O 88 0 min 0,000 mm 0,0 UV-I 0 W/m 3,3 C 3,9 C 4,8 km/h (1 Bft) 97,87 %
10.10.2016 00:44 3,9 C 96 % 1023,1 hPa 0,0 l/m 3,8 km/h (1 Bft) O 88 0 min 0,000 mm 0,0 UV-I 0 W/m 3,3 C 3,9 C 4,8 km/h (1 Bft) 95,83 %
10.10.2016 00:46 3,8 C 96 % 1023,1 hPa 0,0 l/m 2,4 km/h (1 Bft) O 88 0 min 0,000 mm 0,0 UV-I 0 W/m 3,2 C 3,8 C 3,2 km/h (1 Bft) 95,74 %
10.10.2016 00:48 3,8 C 96 % 1023,1 hPa 0,0 l/m 2,0 km/h (1 Bft) O 88 0 min 0,000 mm 0,0 UV-I 0 W/m 3,2 C 3,8 C 3,2 km/h (1 Bft) 97,96 %
10.10.2016 00:50 3,8 C 96 % 1023,1 hPa 0,0 l/m 1,1 km/h (1 Bft) O 88 0 min 0,000 mm 0,0 UV-I 0 W/m 3,2 C 3,8 C 3,2 km/h (1 Bft) 97,87 %
10.10.2016 00:52 3,8 C 96 % 1023,2 hPa 0,0 l/m 0,0 km/h (0 Bft) O 88 0 min 0,000 mm 0,0 UV-I 0 W/m 3,2 C 3,8 C 1,6 km/h (1 Bft) 95,74 %
10.10.2016 00:54 3,7 C 96 % 1023,2 hPa 0,0 l/m 2,4 km/h (1 Bft) O 88 0 min 0,000 mm 0,0 UV-I 0 W/m 3,1 C 3,7 C 4,8 km/h (1 Bft) 95,74 %
10.10.2016 00:56 3,6 C 96 % 1023,1 hPa 0,0 l/m 3,1 km/h (1 Bft) O 88 0 min 0,000 mm 0,0 UV-I 0 W/m 3,0 C 3,6 C 3,2 km/h (1 Bft) 95,74 %
10.10.2016 00:58 3,5 C 96 % 1023,1 hPa 0,0 l/m 1,8 km/h (1 Bft) O 88 0 min 0,000 mm 0,0 UV-I 0 W/m 2,9 C 3,5 C 3,2 km/h (1 Bft) 100,00 %
10.10.2016 01:00 3,4 C 96 % 1023,1 hPa 0,0 l/m 0,9 km/h (0 Bft) O 88 0 min 0,000 mm 0,0 UV-I 0 W/m 2,8 C 3,4 C 3,2 km/h (1 Bft) 100,00 %
10.10.2016 01:01 3,4 C 96 % 1023,1 hPa 0,0 l/m 2,4 km/h (1 Bft) O 88 0 min 0,000 mm 0,0 UV-I 0 W/m 2,8 C 3,4 C 4,8 km/h (1 Bft) 97,87 %
10.10.2016 01:04 3,4 C 96 % 1023,1 hPa 0,0 l/m 2,8 km/h (1 Bft) O 89 0 min 0,000 mm 0,0 UV-I 0 W/m 2,8 C 3,4 C 3,2 km/h (1 Bft) 98,00 %
10.10.2016 01:06 3,5 C 96 % 1023,1 hPa 0,0 l/m 2,5 km/h (1 Bft) O 94 0 min 0,000 mm 0,0 UV-I 0 W/m 2,9 C 3,5 C 3,2 km/h (1 Bft) 100,00 %
10.10.2016 01:08 3,6 C 96 % 1023,1 hPa 0,0 l/m 1,7 km/h (1 Bft) O 94 0 min 0,000 mm 0,0 UV-I 0 W/m 3,0 C 3,6 C 3,2 km/h (1 Bft) 100,00 %
10.10.2016 01:10 3,6 C 96 % 1023,1 hPa 0,0 l/m 2,1 km/h (1 Bft) O 94 0 min 0,000 mm 0,0 UV-I 0 W/m 3,0 C 3,6 C 3,2 km/h (1 Bft) 100,00 %
10.10.2016 01:12 3,5 C 96 % 1023,1 hPa 0,0 l/m 1,5 km/h (1 Bft) O 94 0 min 0,000 mm 0,0 UV-I 0 W/m 2,9 C 3,5 C 3,2 km/h (1 Bft) 100,00 %
10.10.2016 01:14 3,2 C 96 % 1023,1 hPa 0,0 l/m 0,5 km/h (0 Bft) O 94 0 min 0,000 mm 0,0 UV-I 0 W/m 2,6 C 3,2 C 1,6 km/h (1 Bft) 97,87 %
10.10.2016 01:16 3,1 C 95 % 1023,1 hPa 0,0 l/m 0,3 km/h (0 Bft) O 94 0 min 0,000 mm 0,0 UV-I 0 W/m 2,4 C 3,1 C 1,6 km/h (1 Bft) 100,00 %
10.10.2016 01:18 3,0 C 96 % 1023,1 hPa 0,0 l/m 0,3 km/h (0 Bft) O 94 0 min 0,000 mm 0,0 UV-I 0 W/m 2,4 C 3,0 C 1,6 km/h (1 Bft) 100,00 %
10.10.2016 01:20 3,0 C 96 % 1023,1 hPa 0,0 l/m 0,8 km/h (0 Bft) O 94 0 min 0,000 mm 0,0 UV-I 0 W/m 2,4 C 3,0 C 3,2 km/h (1 Bft) 100,00 %
10.10.2016 01:22 3,2 C 96 % 1023,1 hPa 0,0 l/m 0,6 km/h (0 Bft) O 94 0 min 0,000 mm 0,0 UV-I 0 W/m 2,6 C 3,2 C 1,6 km/h (1 Bft) 97,87 %
10.10.2016 01:24 3,2 C 97 % 1023,1 hPa 0,0 l/m 0,4 km/h (0 Bft) O 94 0 min 0,000 mm 0,0 UV-I 0 W/m 2,8 C 3,2 C 3,2 km/h (1 Bft) 100,00 %
10.10.2016 01:26 3,3 C 97 % 1023,1 hPa 0,0 l/m 0,9 km/h (0 Bft) O 94 0 min 0,000 mm 0,0 UV-I 0 W/m 2,9 C 3,3 C 3,2 km/h (1 Bft) 97,87 %
10.10.2016 01:28 3,4 C 97 % 1023,1 hPa 0,0 l/m 0,3 km/h (0 Bft) O 94 0 min 0,000 mm 0,0 UV-I 0 W/m 3,0 C 3,4 C 1,6 km/h (1 Bft) 100,00 %
10.10.2016 01:30 3,4 C 96 % 1023,1 hPa 0,0 l/m 1,8 km/h (1 Bft) O 94 0 min 0,000 mm 0,0 UV-I 0 W/m 2,8 C 3,4 C 3,2 km/h (1 Bft) 100,00 %
10.10.2016 01:32 3,4 C 96 % 1023,1 hPa 0,0 l/m 2,3 km/h (1 Bft) O 94 0 min 0,000 mm 0,0 UV-I 0 W/m 2,8 C 3,4 C 3,2 km/h (1 Bft) 97,87 %
10.10.2016 01:34 3,7 C 97 % 1023,1 hPa 0,0 l/m 1,6 km/h (1 Bft) O 94 0 min 0,000 mm 0,0 UV-I 0 W/m 3,3 C 3,7 C 3,2 km/h (1 Bft) 100,00 %
10.10.2016 01:36 3,6 C 97 % 1023,1 hPa 0,0 l/m 0,2 km/h (0 Bft) O 94 0 min 0,000 mm 0,0 UV-I 0 W/m 3,2 C 3,6 C 1,6 km/h (1 Bft) 100,00 %
10.10.2016 01:38 3,4 C 96 % 1023,1 hPa 0,0 l/m 0,0 km/h (0 Bft) O 94 0 min 0,000 mm 0,0 UV-I 0 W/m 2,8 C 3,4 C 0,0 km/h (0 Bft) 100,00 %
10.10.2016 01:40 3,4 C 96 % 1023,1 hPa 0,0 l/m 0,3 km/h (0 Bft) O 93 0 min 0,000 mm 0,0 UV-I 0 W/m 2,8 C 3,4 C 3,2 km/h (1 Bft) 97,87 %
10.10.2016 01:42 3,3 C 96 % 1023,1 hPa 0,0 l/m 2,3 km/h (1 Bft) O 93 0 min 0,000 mm 0,0 UV-I 0 W/m 2,7 C 3,3 C 3,2 km/h (1 Bft) 100,00 %
10.10.2016 01:44 3,3 C 96 % 1023,1 hPa 0,0 l/m 1,9 km/h (1 Bft) O 93 0 min 0,000 mm 0,0 UV-I 0 W/m 2,7 C 3,3 C 3,2 km/h (1 Bft) 100,00 %
10.10.2016 01:46 3,3 C 96 % 1023,0 hPa 0,0 l/m 2,2 km/h (1 Bft) O 93 0 min 0,000 mm 0,0 UV-I 0 W/m 2,7 C 3,3 C 3,2 km/h (1 Bft) 100,00 %
10.10.2016 01:48 3,3 C 96 % 1023,0 hPa 0,0 l/m 2,0 km/h (1 Bft) O 93 0 min 0,000 mm 0,0 UV-I 0 W/m 2,7 C 3,3 C 3,2 km/h (1 Bft) 97,87 %
10.10.2016 01:50 3,3 C 96 % 1023,1 hPa 0,0 l/m 2,3 km/h (1 Bft) O 93 0 min 0,000 mm 0,0 UV-I 0 W/m 2,7 C 3,3 C 3,2 km/h (1 Bft) 100,00 %
10.10.2016 01:52 3,6 C 97 % 1023,1 hPa 0,0 l/m 1,9 km/h (1 Bft) O 93 0 min 0,000 mm 0,0 UV-I 0 W/m 3,2 C 3,6 C 3,2 km/h (1 Bft) 97,37 %
10.10.2016 01:54 3,7 C 97 % 1023,1 hPa 0,0 l/m 2,3 km/h (1 Bft) O 93 0 min 0,000 mm 0,0 UV-I 0 W/m 3,3 C 3,7 C 3,2 km/h (1 Bft) 97,87 %
10.10.2016 01:56 3,8 C 97 % 1023,1 hPa 0,0 l/m 2,6 km/h (1 Bft) O 93 0 min 0,000 mm 0,0 UV-I 0 W/m 3,4 C 3,8 C 3,2 km/h (1 Bft) 100,00 %
10.10.2016 01:58 3,8 C 97 % 1023,1 hPa 0,0 l/m 2,1 km/h (1 Bft) O 93 0 min 0,000 mm 0,0 UV-I 0 W/m 3,4 C 3,8 C 3,2 km/h (1 Bft) 97,87 %
10.10.2016 02:00 3,8 C 97 % 1023,1 hPa 0,0 l/m 2,2 km/h (1 Bft) O 93 0 min 0,000 mm 0,0 UV-I 0 W/m 3,4 C 3,8 C 3,2 km/h (1 Bft) 97,92 %
10.10.2016 02:02 3,8 C 97 % 1023,1 hPa 0,0 l/m 2,6 km/h (1 Bft) O 93 0 min 0,000 mm 0,0 UV-I 0 W/m 3,4 C 3,8 C 3,2 km/h (1 Bft) 100,00 %
10.10.2016 02:04 3,9 C 97 % 1023,1 hPa 0,0 l/m 2,9 km/h (1 Bft) O 93 0 min 0,000 mm 0,0 UV-I 0 W/m 3,5 C 3,9 C 3,2 km/h (1 Bft) 100,00 %
10.10.2016 02:06 3,9 C 97 % 1023,1 hPa 0,0 l/m 2,0 km/h (1 Bft) O 93 0 min 0,000 mm 0,0 UV-I 0 W/m 3,5 C 3,9 C 3,2 km/h (1 Bft) 97,87 %
10.10.2016 02:08 4,0 C 97 % 1023,1 hPa 0,0 l/m 0,7 km/h (0 Bft) O 93 0 min 0,000 mm 0,0 UV-I 0 W/m 3,6 C 4,0 C 1,6 km/h (1 Bft) 98,00 %
10.10.2016 02:10 3,9 C 96 % 1023,1 hPa 0,0 l/m 0,2 km/h (0 Bft) O 93 0 min 0,000 mm 0,0 UV-I 0 W/m 3,3 C 3,9 C 1,6 km/h (1 Bft) 100,00 %
10.10.2016 02:12 3,8 C 96 % 1023,1 hPa 0,0 l/m 0,1 km/h (0 Bft) O 93 0 min 0,000 mm 0,0 UV-I 0 W/m 3,2 C 3,8 C 1,6 km/h (1 Bft) 95,74 %
10.10.2016 02:14 3,8 C 96 % 1023,1 hPa 0,0 l/m 0,0 km/h (0 Bft) O 93 0 min 0,000 mm 0,0 UV-I 0 W/m 3,2 C 3,8 C 0,0 km/h (0 Bft) 98,00 %
10.10.2016 02:16 3,8 C 96 % 1023,1 hPa 0,0 l/m 0,0 km/h (0 Bft) O 93 0 min 0,000 mm 0,0 UV-I 0 W/m 3,2 C 3,8 C 0,0 km/h (0 Bft) 100,00 %
10.10.2016 02:18 3,6 C 96 % 1023,1 hPa 0,0 l/m 0,0 km/h (0 Bft) O 93 0 min 0,000 mm 0,0 UV-I 0 W/m 3,0 C 3,6 C 0,0 km/h (0 Bft) 100,00 %
10.10.2016 02:20 3,3 C 95 % 1023,1 hPa 0,0 l/m 0,0 km/h (0 Bft) O 93 0 min 0,000 mm 0,0 UV-I 0 W/m 2,6 C 3,3 C 0,0 km/h (0 Bft) 100,00 %
10.10.2016 02:22 3,2 C 96 % 1023,1 hPa 0,0 l/m 0,1 km/h (0 Bft) O 93 0 min 0,000 mm 0,0 UV-I 0 W/m 2,6 C 3,2 C 1,6 km/h (1 Bft) 100,00 %
10.10.2016 02:24 3,0 C 96 % 1023,1 hPa 0,0 l/m 0,6 km/h (0 Bft) O 93 0 min 0,000 mm 0,0 UV-I 0 W/m 2,4 C 3,0 C 1,6 km/h (1 Bft) 95,74 %
10.10.2016 02:26 2,9 C 96 % 1023,1 hPa 0,0 l/m 1,7 km/h (1 Bft) O 93 0 min 0,000 mm 0,0 UV-I 0 W/m 2,3 C 2,9 C 3,2 km/h (1 Bft) 100,00 %
10.10.2016 02:28 2,8 C 96 % 1023,1 hPa 0,0 l/m 2,2 km/h (1 Bft) O 93 0 min 0,000 mm 0,0 UV-I 0 W/m 2,2 C 2,8 C 3,2 km/h (1 Bft) 100,00 %
10.10.2016 02:30 2,8 C 96 % 1023,1 hPa 0,0 l/m 2,9 km/h (1 Bft) O 93 0 min 0,000 mm 0,0 UV-I 0 W/m 2,2 C 2,8 C 3,2 km/h (1 Bft) 100,00 %
10.10.2016 02:32 2,8 C 96 % 1023,0 hPa 0,0 l/m 3,1 km/h (1 Bft) O 93 0 min 0,000 mm 0,0 UV-I 0 W/m 2,2 C 2,8 C 3,2 km/h (1 Bft) 93,62 %
10.10.2016 02:34 2,8 C 96 % 1023,0 hPa 0,0 l/m 2,9 km/h (1 Bft) O 93 0 min 0,000 mm 0,0 UV-I 0 W/m 2,2 C 2,8 C 3,2 km/h (1 Bft) 100,00 %
10.10.2016 02:36 2,8 C 96 % 1023,0 hPa 0,0 l/m 3,2 km/h (1 Bft) O 93 0 min 0,000 mm 0,0 UV-I 0 W/m 2,2 C 2,8 C 4,8 km/h (1 Bft) 97,87 %
10.10.2016 02:38 2,8 C 96 % 1023,0 hPa 0,0 l/m 3,2 km/h (1 Bft) O 94 0 min 0,000 mm 0,0 UV-I 0 W/m 2,2 C 2,8 C 4,8 km/h (1 Bft) 95,74 %
10.10.2016 02:40 2,7 C 96 % 1023,0 hPa 0,0 l/m 1,9 km/h (1 Bft) O 94 0 min 0,000 mm 0,0 UV-I 0 W/m 2,1 C 2,7 C 4,8 km/h (1 Bft) 95,74 %
10.10.2016 02:42 2,6 C 96 % 1023,0 hPa 0,0 l/m 2,8 km/h (1 Bft) O 98 0 min 0,000 mm 0,0 UV-I 0 W/m 2,0 C 2,6 C 4,8 km/h (1 Bft) 97,87 %
10.10.2016 02:44 2,3 C 96 % 1023,0 hPa 0,0 l/m 2,7 km/h (1 Bft) O-SO 115 0 min 0,000 mm 0,0 UV-I 0 W/m 1,7 C 2,3 C 4,8 km/h (1 Bft) 96,00 %
10.10.2016 02:46 2,3 C 96 % 1023,0 hPa 0,0 l/m 2,5 km/h (1 Bft) S-SO 154 0 min 0,000 mm 0,0 UV-I 0 W/m 1,7 C 2,3 C 4,8 km/h (1 Bft) 95,83 %
10.10.2016 02:48 2,4 C 96 % 1023,0 hPa 0,0 l/m 2,4 km/h (1 Bft) S-SO 154 0 min 0,000 mm 0,0 UV-I 0 W/m 1,8 C 2,4 C 4,8 km/h (1 Bft) 95,74 %
10.10.2016 02:50 2,4 C 96 % 1023,0 hPa 0,0 l/m 1,0 km/h (0 Bft) S-SO 154 0 min 0,000 mm 0,0 UV-I 0 W/m 1,8 C 2,4 C 3,2 km/h (1 Bft) 97,37 %
10.10.2016 02:52 2,5 C 97 % 1023,0 hPa 0,0 l/m 2,1 km/h (1 Bft) S-SO 154 0 min 0,000 mm 0,0 UV-I 0 W/m 2,1 C 2,5 C 3,2 km/h (1 Bft) 97,87 %
10.10.2016 02:54 2,6 C 97 % 1023,0 hPa 0,0 l/m 1,5 km/h (1 Bft) S-SO 154 0 min 0,000 mm 0,0 UV-I 0 W/m 2,2 C 2,6 C 3,2 km/h (1 Bft) 95,74 %
10.10.2016 02:56 2,7 C 97 % 1022,9 hPa 0,0 l/m 2,4 km/h (1 Bft) S-SO 154 0 min 0,000 mm 0,0 UV-I 0 W/m 2,3 C 2,7 C 4,8 km/h (1 Bft) 97,87 %
10.10.2016 02:58 2,8 C 97 % 1022,9 hPa 0,0 l/m 1,8 km/h (1 Bft) S-SO 154 0 min 0,000 mm 0,0 UV-I 0 W/m 2,4 C 2,8 C 3,2 km/h (1 Bft) 97,87 %
10.10.2016 03:00 2,9 C 97 % 1022,9 hPa 0,0 l/m 2,8 km/h (1 Bft) S-SO 154 0 min 0,000 mm 0,0 UV-I 0 W/m 2,5 C 2,9 C 4,8 km/h (1 Bft) 95,74 %
10.10.2016 03:02 2,8 C 97 % 1022,9 hPa 0,0 l/m 1,1 km/h (1 Bft) S-SO 154 0 min 0,000 mm 0,0 UV-I 0 W/m 2,4 C 2,8 C 3,2 km/h (1 Bft) 97,87 %
10.10.2016 03:04 2,6 C 96 % 1022,9 hPa 0,0 l/m 0,0 km/h (0 Bft) S-SO 154 0 min 0,000 mm 0,0 UV-I 0 W/m 2,0 C 2,6 C 0,0 km/h (0 Bft) 98,00 %
10.10.2016 03:06 2,6 C 97 % 1022,9 hPa 0,0 l/m 0,7 km/h (0 Bft) S-SO 154 0 min 0,000 mm 0,0 UV-I 0 W/m 2,2 C 2,6 C 1,6 km/h (1 Bft) 95,74 %
10.10.2016 03:08 2,6 C 97 % 1022,9 hPa 0,0 l/m 0,1 km/h (0 Bft) S-SO 154 0 min 0,000 mm 0,0 UV-I 0 W/m 2,2 C 2,6 C 1,6 km/h (1 Bft) 96,00 %
10.10.2016 03:10 2,6 C 97 % 1022,9 hPa 0,0 l/m 0,0 km/h (0 Bft) S-SO 154 0 min 0,000 mm 0,0 UV-I 0 W/m 2,2 C 2,6 C 0,0 km/h (0 Bft) 95,74 %
10.10.2016 03:12 2,6 C 97 % 1022,9 hPa 0,0 l/m 0,0 km/h (0 Bft) S-SO 154 0 min 0,000 mm 0,0 UV-I 0 W/m 2,2 C 2,6 C 0,0 km/h (0 Bft) 97,37 %
10.10.2016 03:14 2,6 C 97 % 1022,8 hPa 0,0 l/m 0,0 km/h (0 Bft) S-SO 154 0 min 0,000 mm 0,0 UV-I 0 W/m 2,2 C 2,6 C 0,0 km/h (0 Bft) 97,87 %
10.10.2016 03:16 2,6 C 97 % 1022,8 hPa 0,0 l/m 0,0 km/h (0 Bft) S-SO 154 0 min 0,000 mm 0,0 UV-I 0 W/m 2,2 C 2,6 C 0,0 km/h (0 Bft) 100,00 %
10.10.2016 03:18 2,6 C 97 % 1022,9 hPa 0,0 l/m 0,0 km/h (0 Bft) S-SO 154 0 min 0,000 mm 0,0 UV-I 0 W/m 2,2 C 2,6 C 0,0 km/h (0 Bft) 97,87 %
10.10.2016 03:20 2,7 C 97 % 1022,8 hPa 0,0 l/m 0,0 km/h (0 Bft) S-SO 154 0 min 0,000 mm 0,0 UV-I 0 W/m 2,3 C 2,7 C 0,0 km/h (0 Bft) 100,00 %
10.10.2016 03:22 2,7 C 97 % 1022,8 hPa 0,0 l/m 0,0 km/h (0 Bft) S-SO 154 0 min 0,000 mm 0,0 UV-I 0 W/m 2,3 C 2,7 C 0,0 km/h (0 Bft) 100,00 %
10.10.2016 03:24 2,7 C 97 % 1022,8 hPa 0,0 l/m 0,0 km/h (0 Bft) S-SO 154 0 min 0,000 mm 0,0 UV-I 0 W/m 2,3 C 2,7 C 0,0 km/h (0 Bft) 100,00 %
10.10.2016 03:26 2,7 C 97 % 1022,8 hPa 0,0 l/m 0,0 km/h (0 Bft) S-SO 154 0 min 0,000 mm 0,0 UV-I 0 W/m 2,3 C 2,7 C 0,0 km/h (0 Bft) 100,00 %
10.10.2016 03:28 2,7 C 97 % 1022,8 hPa 0,0 l/m 0,0 km/h (0 Bft) S-SO 154 0 min 0,000 mm 0,0 UV-I 0 W/m 2,3 C 2,7 C 0,0 km/h (0 Bft) 95,74 %
10.10.2016 03:30 2,6 C 97 % 1022,8 hPa 0,0 l/m 0,0 km/h (0 Bft) S-SO 154 0 min 0,000 mm 0,0 UV-I 0 W/m 2,2 C 2,6 C 0,0 km/h (0 Bft) 97,87 %
10.10.2016 03:32 2,6 C 97 % 1022,8 hPa 0,0 l/m 0,0 km/h (0 Bft) S-SO 154 0 min 0,000 mm 0,0 UV-I 0 W/m 2,2 C 2,6 C 0,0 km/h (0 Bft) 100,00 %
10.10.2016 03:34 2,5 C 97 % 1022,8 hPa 0,0 l/m 0,0 km/h (0 Bft) S-SO 154 0 min 0,000 mm 0,0 UV-I 0 W/m 2,1 C 2,5 C 1,6 km/h (1 Bft) 97,87 %
10.10.2016 03:36 2,4 C 97 % 1022,8 hPa 0,0 l/m 0,0 km/h (0 Bft) S-SO 154 0 min 0,000 mm 0,0 UV-I 0 W/m 2,0 C 2,4 C 0,0 km/h (0 Bft) 100,00 %
10.10.2016 03:38 2,3 C 97 % 1022,8 hPa 0,0 l/m 0,0 km/h (0 Bft) S-SO 154 0 min 0,000 mm 0,0 UV-I 0 W/m 1,9 C 2,3 C 0,0 km/h (0 Bft) 100,00 %
10.10.2016 03:40 2,3 C 97 % 1022,8 hPa 0,0 l/m 0,0 km/h (0 Bft) S-SO 154 0 min 0,000 mm 0,0 UV-I 0 W/m 1,9 C 2,3 C 0,0 km/h (0 Bft) 100,00 %
10.10.2016 03:42 2,4 C 97 % 1022,7 hPa 0,0 l/m 0,0 km/h (0 Bft) S-SO 154 0 min 0,000 mm 0,0 UV-I 0 W/m 2,0 C 2,4 C 0,0 km/h (0 Bft) 97,87 %
10.10.2016 03:44 2,5 C 97 % 1022,8 hPa 0,0 l/m 0,0 km/h (0 Bft) S-SO 154 0 min 0,000 mm 0,0 UV-I 0 W/m 2,1 C 2,5 C 0,0 km/h (0 Bft) 100,00 %
10.10.2016 03:46 2,6 C 97 % 1022,7 hPa 0,0 l/m 0,0 km/h (0 Bft) S-SO 154 0 min 0,000 mm 0,0 UV-I 0 W/m 2,2 C 2,6 C 0,0 km/h (0 Bft) 97,87 %
10.10.2016 03:48 2,7 C 97 % 1022,8 hPa 0,0 l/m 0,0 km/h (0 Bft) S-SO 154 0 min 0,000 mm 0,0 UV-I 0 W/m 2,3 C 2,7 C 0,0 km/h (0 Bft) 100,00 %
10.10.2016 03:50 2,7 C 97 % 1022,7 hPa 0,0 l/m 0,0 km/h (0 Bft) S-SO 154 0 min 0,000 mm 0,0 UV-I 0 W/m 2,3 C 2,7 C 0,0 km/h (0 Bft) 97,87 %
10.10.2016 03:52 2,6 C 97 % 1022,7 hPa 0,0 l/m 0,0 km/h (0 Bft) S-SO 154 0 min 0,000 mm 0,0 UV-I 0 W/m 2,2 C 2,6 C 0,0 km/h (0 Bft) 97,87 %
10.10.2016 03:54 2,6 C 97 % 1022,7 hPa 0,0 l/m 0,0 km/h (0 Bft) S-SO 154 0 min 0,000 mm 0,0 UV-I 0 W/m 2,2 C 2,6 C 0,0 km/h (0 Bft) 100,00 %
10.10.2016 03:56 2,7 C 97 % 1022,7 hPa 0,0 l/m 0,0 km/h (0 Bft) S-SO 154 0 min 0,000 mm 0,0 UV-I 0 W/m 2,3 C 2,7 C 0,0 km/h (0 Bft) 100,00 %
10.10.2016 03:58 2,6 C 97 % 1022,7 hPa 0,0 l/m 0,0 km/h (0 Bft) S-SO 154 0 min 0,000 mm 0,0 UV-I 0 W/m 2,2 C 2,6 C 0,0 km/h (0 Bft) 100,00 %
10.10.2016 04:00 2,6 C 97 % 1022,7 hPa 0,0 l/m 0,0 km/h (0 Bft) S-SO 154 0 min 0,000 mm 0,0 UV-I 0 W/m 2,2 C 2,6 C 0,0 km/h (0 Bft) 97,87 %
10.10.2016 04:02 2,6 C 97 % 1022,7 hPa 0,0 l/m 0,0 km/h (0 Bft) S-SO 154 0 min 0,000 mm 0,0 UV-I 0 W/m 2,2 C 2,6 C 0,0 km/h (0 Bft) 100,00 %
10.10.2016 04:04 2,6 C 97 % 1022,7 hPa 0,0 l/m 0,0 km/h (0 Bft) S-SO 154 0 min 0,000 mm 0,0 UV-I 0 W/m 2,2 C 2,6 C 0,0 km/h (0 Bft) 97,87 %
10.10.2016 04:06 2,7 C 97 % 1022,7 hPa 0,0 l/m 0,0 km/h (0 Bft) S-SO 154 0 min 0,000 mm 0,0 UV-I 0 W/m 2,3 C 2,7 C 0,0 km/h (0 Bft) 100,00 %
10.10.2016 04:08 2,7 C 97 % 1022,7 hPa 0,0 l/m 0,0 km/h (0 Bft) S-SO 154 0 min 0,000 mm 0,0 UV-I 0 W/m 2,3 C 2,7 C 1,6 km/h (1 Bft) 95,74 %
10.10.2016 04:10 2,7 C 97 % 1022,7 hPa 0,0 l/m 0,3 km/h (0 Bft) S-SO 154 0 min 0,000 mm 0,0 UV-I 0 W/m 2,3 C 2,7 C 1,6 km/h (1 Bft) 100,00 %
10.10.2016 04:12 2,7 C 97 % 1022,7 hPa 0,0 l/m 1,7 km/h (1 Bft) S-SO 154 0 min 0,000 mm 0,0 UV-I 0 W/m 2,3 C 2,7 C 3,2 km/h (1 Bft) 100,00 %
10.10.2016 04:14 2,7 C 97 % 1022,7 hPa 0,0 l/m 1,9 km/h (1 Bft) S-SO 154 0 min 0,000 mm 0,0 UV-I 0 W/m 2,3 C 2,7 C 3,2 km/h (1 Bft) 95,74 %
10.10.2016 04:16 2,7 C 97 % 1022,7 hPa 0,0 l/m 2,0 km/h (1 Bft) S-SO 154 0 min 0,000 mm 0,0 UV-I 0 W/m 2,3 C 2,7 C 3,2 km/h (1 Bft) 100,00 %
10.10.2016 04:18 2,6 C 97 % 1022,7 hPa 0,0 l/m 1,9 km/h (1 Bft) S-SO 154 0 min 0,000 mm 0,0 UV-I 0 W/m 2,2 C 2,6 C 3,2 km/h (1 Bft) 100,00 %
10.10.2016 04:20 2,6 C 97 % 1022,7 hPa 0,0 l/m 2,2 km/h (1 Bft) S-SO 154 0 min 0,000 mm 0,0 UV-I 0 W/m 2,2 C 2,6 C 3,2 km/h (1 Bft) 100,00 %
10.10.2016 04:22 2,6 C 97 % 1022,7 hPa 0,0 l/m 2,0 km/h (1 Bft) S-SO 154 0 min 0,000 mm 0,0 UV-I 0 W/m 2,2 C 2,6 C 3,2 km/h (1 Bft) 100,00 %
10.10.2016 04:24 2,7 C 97 % 1022,7 hPa 0,0 l/m 1,7 km/h (1 Bft) S-SO 154 0 min 0,000 mm 0,0 UV-I 0 W/m 2,3 C 2,7 C 3,2 km/h (1 Bft) 100,00 %
10.10.2016 04:26 2,7 C 97 % 1022,7 hPa 0,0 l/m 2,2 km/h (1 Bft) S-SO 154 0 min 0,000 mm 0,0 UV-I 0 W/m 2,3 C 2,7 C 3,2 km/h (1 Bft) 100,00 %
10.10.2016 04:28 2,7 C 97 % 1022,7 hPa 0,0 l/m 2,1 km/h (1 Bft) S-SO 154 0 min 0,000 mm 0,0 UV-I 0 W/m 2,3 C 2,7 C 3,2 km/h (1 Bft) 100,00 %
10.10.2016 04:30 2,7 C 97 % 1022,7 hPa 0,0 l/m 1,0 km/h (0 Bft) S-SO 154 0 min 0,000 mm 0,0 UV-I 0 W/m 2,3 C 2,7 C 3,2 km/h (1 Bft) 100,00 %
10.10.2016 04:32 2,6 C 97 % 1022,7 hPa 0,0 l/m 1,6 km/h (1 Bft) S-SO 154 0 min 0,000 mm 0,0 UV-I 0 W/m 2,2 C 2,6 C 3,2 km/h (1 Bft) 100,00 %
10.10.2016 04:34 2,5 C 97 % 1022,7 hPa 0,0 l/m 0,3 km/h (0 Bft) S-SO 154 0 min 0,000 mm 0,0 UV-I 0 W/m 2,1 C 2,5 C 1,6 km/h (1 Bft) 100,00 %
10.10.2016 04:36 2,5 C 97 % 1022,7 hPa 0,0 l/m 0,4 km/h (0 Bft) S-SO 154 0 min 0,000 mm 0,0 UV-I 0 W/m 2,1 C 2,5 C 1,6 km/h (1 Bft) 98,00 %
10.10.2016 04:38 2,4 C 97 % 1022,7 hPa 0,0 l/m 0,2 km/h (0 Bft) S-SO 154 0 min 0,000 mm 0,0 UV-I 0 W/m 2,0 C 2,4 C 1,6 km/h (1 Bft) 100,00 %
10.10.2016 04:40 2,6 C 97 % 1022,7 hPa 0,0 l/m 0,2 km/h (0 Bft) S-SO 154 0 min 0,000 mm 0,0 UV-I 0 W/m 2,2 C 2,6 C 1,6 km/h (1 Bft) 100,00 %
10.10.2016 04:42 2,5 C 97 % 1022,6 hPa 0,0 l/m 1,9 km/h (1 Bft) S-SO 154 0 min 0,000 mm 0,0 UV-I 0 W/m 2,1 C 2,5 C 3,2 km/h (1 Bft) 95,74 %
10.10.2016 04:44 2,5 C 97 % 1022,7 hPa 0,0 l/m 1,6 km/h (1 Bft) S-SO 154 0 min 0,000 mm 0,0 UV-I 0 W/m 2,1 C 2,5 C 3,2 km/h (1 Bft) 97,92 %
10.10.2016 04:46 2,6 C 97 % 1022,7 hPa 0,0 l/m 2,0 km/h (1 Bft) S-SO 154 0 min 0,000 mm 0,0 UV-I 0 W/m 2,2 C 2,6 C 3,2 km/h (1 Bft) 97,87 %
10.10.2016 04:48 2,6 C 97 % 1022,6 hPa 0,0 l/m 1,4 km/h (1 Bft) S-SO 154 0 min 0,000 mm 0,0 UV-I 0 W/m 2,2 C 2,6 C 3,2 km/h (1 Bft) 95,74 %
10.10.2016 04:50 2,5 C 97 % 1022,6 hPa 0,0 l/m 0,1 km/h (0 Bft) S-SO 154 0 min 0,000 mm 0,0 UV-I 0 W/m 2,1 C 2,5 C 1,6 km/h (1 Bft) 97,87 %
10.10.2016 04:52 2,4 C 97 % 1022,7 hPa 0,0 l/m 0,0 km/h (0 Bft) S-SO 154 0 min 0,000 mm 0,0 UV-I 0 W/m 2,0 C 2,4 C 0,0 km/h (0 Bft) 97,87 %
10.10.2016 04:54 2,4 C 97 % 1022,7 hPa 0,0 l/m 0,3 km/h (0 Bft) S-SO 154 0 min 0,000 mm 0,0 UV-I 0 W/m 2,0 C 2,4 C 1,6 km/h (1 Bft) 97,87 %
10.10.2016 04:56 2,3 C 97 % 1022,7 hPa 0,0 l/m 1,9 km/h (1 Bft) S-SO 154 0 min 0,000 mm 0,0 UV-I 0 W/m 1,9 C 2,3 C 3,2 km/h (1 Bft) 95,74 %
10.10.2016 04:58 2,2 C 97 % 1022,7 hPa 0,0 l/m 2,5 km/h (1 Bft) S-SO 154 0 min 0,000 mm 0,0 UV-I 0 W/m 1,8 C 2,2 C 3,2 km/h (1 Bft) 93,62 %
10.10.2016 05:00 2,2 C 97 % 1022,7 hPa 0,0 l/m 1,6 km/h (1 Bft) S-SO 154 0 min 0,000 mm 0,0 UV-I 0 W/m 1,8 C 2,2 C 3,2 km/h (1 Bft) 97,87 %
10.10.2016 05:02 2,2 C 97 % 1022,7 hPa 0,0 l/m 1,4 km/h (1 Bft) S-SO 154 0 min 0,000 mm 0,0 UV-I 0 W/m 1,8 C 2,2 C 3,2 km/h (1 Bft) 97,37 %
10.10.2016 05:04 2,2 C 97 % 1022,8 hPa 0,0 l/m 0,9 km/h (0 Bft) S-SO 154 0 min 0,000 mm 0,0 UV-I 0 W/m 1,8 C 2,2 C 1,6 km/h (1 Bft) 97,87 %
10.10.2016 05:06 2,2 C 97 % 1022,7 hPa 0,0 l/m 1,8 km/h (1 Bft) S-SO 154 0 min 0,000 mm 0,0 UV-I 0 W/m 1,8 C 2,2 C 3,2 km/h (1 Bft) 96,00 %
10.10.2016 05:08 2,1 C 97 % 1022,7 hPa 0,0 l/m 0,2 km/h (0 Bft) S-SO 154 0 min 0,000 mm 0,0 UV-I 0 W/m 1,7 C 2,1 C 1,6 km/h (1 Bft) 97,87 %
10.10.2016 05:10 1,9 C 97 % 1022,7 hPa 0,0 l/m 0,8 km/h (0 Bft) S-SO 154 0 min 0,000 mm 0,0 UV-I 0 W/m 1,5 C 1,9 C 3,2 km/h (1 Bft) 97,87 %
10.10.2016 05:12 1,8 C 97 % 1022,7 hPa 0,0 l/m 0,3 km/h (0 Bft) S-SO 154 0 min 0,000 mm 0,0 UV-I 0 W/m 1,4 C 1,8 C 1,6 km/h (1 Bft) 95,74 %
10.10.2016 05:14 1,9 C 97 % 1022,7 hPa 0,0 l/m 0,2 km/h (0 Bft) S-SO 154 0 min 0,000 mm 0,0 UV-I 0 W/m 1,5 C 1,9 C 1,6 km/h (1 Bft) 93,62 %
10.10.2016 05:16 1,9 C 97 % 1022,7 hPa 0,0 l/m 0,1 km/h (0 Bft) S-SO 154 0 min 0,000 mm 0,0 UV-I 0 W/m 1,5 C 1,9 C 1,6 km/h (1 Bft) 97,87 %
10.10.2016 05:18 1,9 C 97 % 1022,7 hPa 0,0 l/m 0,3 km/h (0 Bft) S-SO 154 0 min 0,000 mm 0,0 UV-I 0 W/m 1,5 C 1,9 C 3,2 km/h (1 Bft) 100,00 %
10.10.2016 05:20 2,1 C 97 % 1022,7 hPa 0,0 l/m 0,6 km/h (0 Bft) S-SO 154 0 min 0,000 mm 0,0 UV-I 0 W/m 1,7 C 2,1 C 1,6 km/h (1 Bft) 98,00 %
10.10.2016 05:22 2,1 C 97 % 1022,7 hPa 0,0 l/m 0,0 km/h (0 Bft) S-SO 154 0 min 0,000 mm 0,0 UV-I 0 W/m 1,7 C 2,1 C 0,0 km/h (0 Bft) 100,00 %
10.10.2016 05:24 2,1 C 97 % 1022,7 hPa 0,0 l/m 0,0 km/h (0 Bft) S-SO 154 0 min 0,000 mm 0,0 UV-I 0 W/m 1,7 C 2,1 C 0,0 km/h (0 Bft) 97,22 %
10.10.2016 05:26 2,1 C 97 % 1022,7 hPa 0,0 l/m 0,0 km/h (0 Bft) S-SO 154 0 min 0,000 mm 0,0 UV-I 0 W/m 1,7 C 2,1 C 1,6 km/h (1 Bft) 100,00 %
10.10.2016 05:28 1,9 C 97 % 1022,7 hPa 0,0 l/m 1,7 km/h (1 Bft) S-SO 154 0 min 0,000 mm 0,0 UV-I 0 W/m 1,5 C 1,9 C 3,2 km/h (1 Bft) 100,00 %
10.10.2016 05:30 1,9 C 97 % 1022,7 hPa 0,0 l/m 2,0 km/h (1 Bft) S-SO 154 0 min 0,000 mm 0,0 UV-I 0 W/m 1,5 C 1,9 C 3,2 km/h (1 Bft) 94,00 %
10.10.2016 05:32 1,8 C 97 % 1022,7 hPa 0,0 l/m 3,1 km/h (1 Bft) S-SO 154 0 min 0,000 mm 0,0 UV-I 0 W/m 1,4 C 1,8 C 4,8 km/h (1 Bft) 98,00 %
10.10.2016 05:34 1,7 C 97 % 1022,7 hPa 0,0 l/m 1,0 km/h (0 Bft) S-SO 154 0 min 0,000 mm 0,0 UV-I 0 W/m 1,3 C 1,7 C 3,2 km/h (1 Bft) 100,00 %
10.10.2016 05:36 1,6 C 97 % 1022,7 hPa 0,0 l/m 1,3 km/h (1 Bft) S-SO 154 0 min 0,000 mm 0,0 UV-I 0 W/m 1,2 C 1,6 C 3,2 km/h (1 Bft) 95,74 %
10.10.2016 05:38 1,6 C 97 % 1022,7 hPa 0,0 l/m 2,0 km/h (1 Bft) S-SO 154 0 min 0,000 mm 0,0 UV-I 0 W/m 1,2 C 1,6 C 3,2 km/h (1 Bft) 100,00 %
10.10.2016 05:40 1,7 C 97 % 1022,7 hPa 0,0 l/m 3,0 km/h (1 Bft) S-SO 154 0 min 0,000 mm 0,0 UV-I 0 W/m 1,3 C 1,7 C 4,8 km/h (1 Bft) 100,00 %
10.10.2016 05:42 1,7 C 97 % 1022,7 hPa 0,0 l/m 2,6 km/h (1 Bft) S-SO 157 0 min 0,000 mm 0,0 UV-I 0 W/m 1,3 C 1,7 C 4,8 km/h (1 Bft) 97,87 %
10.10.2016 05:44 1,6 C 97 % 1022,7 hPa 0,0 l/m 2,7 km/h (1 Bft) S-SO 157 0 min 0,000 mm 0,0 UV-I 0 W/m 1,2 C 1,6 C 4,8 km/h (1 Bft) 97,87 %
10.10.2016 05:46 1,7 C 97 % 1022,7 hPa 0,0 l/m 3,3 km/h (1 Bft) S-SO 158 0 min 0,000 mm 0,0 UV-I 0 W/m 1,3 C 1,7 C 4,8 km/h (1 Bft) 100,00 %
10.10.2016 05:48 1,7 C 97 % 1022,7 hPa 0,0 l/m 3,8 km/h (1 Bft) S 171 0 min 0,000 mm 0,0 UV-I 0 W/m 1,3 C 1,7 C 8,0 km/h (2 Bft) 97,87 %
10.10.2016 05:50 1,8 C 97 % 1022,7 hPa 0,0 l/m 3,8 km/h (1 Bft) S 187 0 min 0,000 mm 0,0 UV-I 0 W/m 1,4 C 1,8 C 6,4 km/h (2 Bft) 97,87 %
10.10.2016 05:52 1,9 C 97 % 1022,7 hPa 0,0 l/m 3,7 km/h (1 Bft) S-SW 193 0 min 0,000 mm 0,0 UV-I 0 W/m 1,5 C 1,9 C 4,8 km/h (1 Bft) 100,00 %
10.10.2016 05:54 2,0 C 97 % 1022,7 hPa 0,0 l/m 3,2 km/h (1 Bft) S-SW 193 0 min 0,000 mm 0,0 UV-I 0 W/m 1,6 C 2,0 C 4,8 km/h (1 Bft) 100,00 %
10.10.2016 05:56 2,0 C 97 % 1022,7 hPa 0,0 l/m 2,1 km/h (1 Bft) S-SW 193 0 min 0,000 mm 0,0 UV-I 0 W/m 1,6 C 2,0 C 4,8 km/h (1 Bft) 100,00 %
10.10.2016 05:58 2,0 C 97 % 1022,7 hPa 0,0 l/m 2,8 km/h (1 Bft) S-SW 193 0 min 0,000 mm 0,0 UV-I 0 W/m 1,6 C 2,0 C 4,8 km/h (1 Bft) 100,00 %
10.10.2016 06:00 2,1 C 97 % 1022,7 hPa 0,0 l/m 2,7 km/h (1 Bft) S-SW 193 0 min 0,000 mm 0,0 UV-I 0 W/m 1,7 C 2,1 C 3,2 km/h (1 Bft) 100,00 %
10.10.2016 06:02 2,1 C 97 % 1022,7 hPa 0,0 l/m 1,7 km/h (1 Bft) S-SW 193 0 min 0,000 mm 0,0 UV-I 0 W/m 1,7 C 2,1 C 3,2 km/h (1 Bft) 100,00 %
10.10.2016 06:04 2,1 C 97 % 1022,7 hPa 0,0 l/m 1,6 km/h (1 Bft) S-SW 193 0 min 0,000 mm 0,0 UV-I 0 W/m 1,7 C 2,1 C 3,2 km/h (1 Bft) 100,00 %
10.10.2016 06:06 2,1 C 97 % 1022,7 hPa 0,0 l/m 2,3 km/h (1 Bft) S-SW 193 0 min 0,000 mm 0,0 UV-I 0 W/m 1,7 C 2,1 C 3,2 km/h (1 Bft) 100,00 %
10.10.2016 06:08 2,1 C 97 % 1022,7 hPa 0,0 l/m 2,6 km/h (1 Bft) S-SW 193 0 min 0,000 mm 0,0 UV-I 0 W/m 1,7 C 2,1 C 4,8 km/h (1 Bft) 100,00 %
10.10.2016 06:10 2,1 C 97 % 1022,7 hPa 0,0 l/m 2,7 km/h (1 Bft) S-SW 193 0 min 0,000 mm 0,0 UV-I 0 W/m 1,7 C 2,1 C 3,2 km/h (1 Bft) 93,62 %
10.10.2016 06:12 2,0 C 97 % 1022,7 hPa 0,0 l/m 2,9 km/h (1 Bft) S-SW 193 0 min 0,000 mm 0,0 UV-I 0 W/m 1,6 C 2,0 C 3,2 km/h (1 Bft) 100,00 %
10.10.2016 06:14 1,9 C 97 % 1022,7 hPa 0,0 l/m 1,6 km/h (1 Bft) S-SW 193 0 min 0,000 mm 0,0 UV-I 0 W/m 1,5 C 1,9 C 3,2 km/h (1 Bft) 100,00 %
10.10.2016 06:16 1,9 C 97 % 1022,7 hPa 0,0 l/m 2,1 km/h (1 Bft) S-SW 193 0 min 0,000 mm 0,0 UV-I 0 W/m 1,5 C 1,9 C 3,2 km/h (1 Bft) 100,00 %
10.10.2016 06:18 1,9 C 97 % 1022,7 hPa 0,0 l/m 1,9 km/h (1 Bft) S-SW 193 0 min 0,000 mm 0,0 UV-I 0 W/m 1,5 C 1,9 C 3,2 km/h (1 Bft) 100,00 %
10.10.2016 06:20 1,9 C 97 % 1022,7 hPa 0,0 l/m 1,9 km/h (1 Bft) S-SW 193 0 min 0,000 mm 0,0 UV-I 0 W/m 1,5 C 1,9 C 3,2 km/h (1 Bft) 100,00 %
10.10.2016 06:22 1,9 C 97 % 1022,7 hPa 0,0 l/m 1,8 km/h (1 Bft) S-SW 193 0 min 0,000 mm 0,0 UV-I 0 W/m 1,5 C 1,9 C 4,8 km/h (1 Bft) 100,00 %
10.10.2016 06:24 1,9 C 97 % 1022,7 hPa 0,0 l/m 2,3 km/h (1 Bft) S-SW 193 0 min 0,000 mm 0,0 UV-I 0 W/m 1,5 C 1,9 C 4,8 km/h (1 Bft) 97,87 %
10.10.2016 06:26 1,9 C 97 % 1022,7 hPa 0,0 l/m 2,5 km/h (1 Bft) S-SW 193 0 min 0,000 mm 0,0 UV-I 0 W/m 1,5 C 1,9 C 4,8 km/h (1 Bft) 100,00 %
10.10.2016 06:28 1,9 C 97 % 1022,7 hPa 0,0 l/m 2,8 km/h (1 Bft) S-SW 193 0 min 0,000 mm 0,0 UV-I 0 W/m 1,5 C 1,9 C 4,8 km/h (1 Bft) 97,87 %
10.10.2016 06:30 1,9 C 97 % 1022,7 hPa 0,0 l/m 2,9 km/h (1 Bft) S-SW 193 0 min 0,000 mm 0,0 UV-I 0 W/m 1,5 C 1,9 C 4,8 km/h (1 Bft) 95,74 %
10.10.2016 06:32 2,0 C 97 % 1022,8 hPa 0,0 l/m 2,6 km/h (1 Bft) S-SW 193 0 min 0,000 mm 0,0 UV-I 0 W/m 1,6 C 2,0 C 4,8 km/h (1 Bft) 100,00 %
10.10.2016 06:34 2,0 C 97 % 1022,7 hPa 0,2 l/m 3,8 km/h (1 Bft) S-SW 193 0 min 0,000 mm 0,0 UV-I 0 W/m 1,6 C 2,0 C 4,8 km/h (1 Bft) 100,00 %
10.10.2016 06:36 1,9 C 97 % 1022,8 hPa 0,0 l/m 4,2 km/h (1 Bft) S-SW 193 0 min 0,000 mm 0,0 UV-I 0 W/m 1,5 C 1,9 C 4,8 km/h (1 Bft) 97,87 %
10.10.2016 06:38 1,9 C 97 % 1022,8 hPa 0,0 l/m 3,3 km/h (1 Bft) S-SW 193 0 min 0,000 mm 0,0 UV-I 0 W/m 1,5 C 1,9 C 4,8 km/h (1 Bft) 94,44 %
10.10.2016 06:40 1,9 C 97 % 1022,8 hPa 0,0 l/m 3,3 km/h (1 Bft) S-SW 193 0 min 0,000 mm 0,0 UV-I 0 W/m 1,5 C 1,9 C 4,8 km/h (1 Bft) 100,00 %
10.10.2016 06:42 1,9 C 97 % 1022,8 hPa 0,0 l/m 3,4 km/h (1 Bft) S-SW 193 0 min 0,000 mm 0,0 UV-I 0 W/m 1,5 C 1,9 C 4,8 km/h (1 Bft) 100,00 %
10.10.2016 06:44 1,9 C 97 % 1022,8 hPa 0,0 l/m 2,6 km/h (1 Bft) S-SW 193 0 min 0,000 mm 0,0 UV-I 0 W/m 1,5 C 1,9 C 4,8 km/h (1 Bft) 100,00 %
10.10.2016 06:46 2,0 C 98 % 1022,8 hPa 0,0 l/m 2,4 km/h (1 Bft) S-SW 193 0 min 0,000 mm 0,0 UV-I 0 W/m 1,7 C 2,0 C 3,2 km/h (1 Bft) 95,74 %
10.10.2016 06:48 2,0 C 98 % 1022,8 hPa 0,0 l/m 2,7 km/h (1 Bft) S-SW 193 0 min 0,000 mm 0,0 UV-I 0 W/m 1,7 C 2,0 C 4,8 km/h (1 Bft) 95,74 %
10.10.2016 06:50 1,9 C 98 % 1022,8 hPa 0,0 l/m 3,2 km/h (1 Bft) S-SW 193 0 min 0,000 mm 0,0 UV-I 0 W/m 1,6 C 1,9 C 4,8 km/h (1 Bft) 97,87 %
10.10.2016 06:52 1,9 C 98 % 1022,8 hPa 0,0 l/m 2,7 km/h (1 Bft) S-SW 194 0 min 0,000 mm 0,0 UV-I 0 W/m 1,6 C 1,9 C 4,8 km/h (1 Bft) 93,62 %
10.10.2016 06:54 1,9 C 98 % 1022,8 hPa 0,0 l/m 1,5 km/h (1 Bft) S-SW 194 0 min 0,000 mm 0,0 UV-I 0 W/m 1,6 C 1,9 C 3,2 km/h (1 Bft) 97,87 %
10.10.2016 06:56 1,9 C 98 % 1022,8 hPa 0,0 l/m 1,7 km/h (1 Bft) S-SW 194 0 min 0,000 mm 0,0 UV-I 0 W/m 1,6 C 1,9 C 4,8 km/h (1 Bft) 95,74 %
10.10.2016 06:58 1,9 C 98 % 1022,8 hPa 0,0 l/m 1,1 km/h (1 Bft) S-SW 194 0 min 0,000 mm 0,0 UV-I 0 W/m 1,6 C 1,9 C 3,2 km/h (1 Bft) 97,87 %
10.10.2016 07:00 1,9 C 98 % 1022,8 hPa 0,0 l/m 0,7 km/h (0 Bft) S-SW 194 0 min 0,000 mm 0,0 UV-I 0 W/m 1,6 C 1,9 C 1,6 km/h (1 Bft) 97,87 %
10.10.2016 07:02 1,9 C 98 % 1022,8 hPa 0,0 l/m 2,2 km/h (1 Bft) S-SW 194 0 min 0,000 mm 0,0 UV-I 0 W/m 1,6 C 1,9 C 3,2 km/h (1 Bft) 93,62 %
10.10.2016 07:04 1,9 C 98 % 1022,8 hPa 0,0 l/m 2,4 km/h (1 Bft) S-SW 194 0 min 0,000 mm 0,0 UV-I 0 W/m 1,6 C 1,9 C 4,8 km/h (1 Bft) 95,74 %
10.10.2016 07:06 1,9 C 98 % 1022,8 hPa 0,0 l/m 4,6 km/h (1 Bft) S 185 0 min 0,000 mm 0,0 UV-I 0 W/m 1,6 C 1,9 C 6,4 km/h (2 Bft) 95,74 %
10.10.2016 07:08 1,9 C 98 % 1022,8 hPa 0,0 l/m 4,5 km/h (1 Bft) S 176 0 min 0,000 mm 0,0 UV-I 0 W/m 1,6 C 1,9 C 6,4 km/h (2 Bft) 97,87 %
10.10.2016 07:10 1,8 C 98 % 1022,8 hPa 0,0 l/m 3,3 km/h (1 Bft) S 176 0 min 0,000 mm 0,0 UV-I 0 W/m 1,5 C 1,8 C 6,4 km/h (2 Bft) 93,62 %
10.10.2016 07:12 1,9 C 98 % 1022,8 hPa 0,0 l/m 3,7 km/h (1 Bft) S 176 0 min 0,000 mm 0,0 UV-I 0 W/m 1,6 C 1,9 C 4,8 km/h (1 Bft) 97,87 %
10.10.2016 07:14 1,8 C 98 % 1022,8 hPa 0,0 l/m 2,8 km/h (1 Bft) S 178 0 min 0,000 mm 0,0 UV-I 0 W/m 1,5 C 1,8 C 4,8 km/h (1 Bft) 97,87 %
10.10.2016 07:16 1,8 C 98 % 1022,8 hPa 0,0 l/m 3,1 km/h (1 Bft) S 178 0 min 0,000 mm 0,0 UV-I 0 W/m 1,5 C 1,8 C 4,8 km/h (1 Bft) 97,87 %
10.10.2016 07:18 1,8 C 98 % 1022,8 hPa 0,0 l/m 3,8 km/h (1 Bft) S 178 0 min 0,000 mm 0,0 UV-I 0 W/m 1,5 C 1,8 C 6,4 km/h (2 Bft) 98,00 %
10.10.2016 07:20 1,8 C 98 % 1022,9 hPa 0,0 l/m 2,8 km/h (1 Bft) S 178 0 min 0,000 mm 0,0 UV-I 5 W/m 1,5 C 1,8 C 4,8 km/h (1 Bft) 97,87 %
10.10.2016 07:22 1,8 C 98 % 1022,8 hPa 0,0 l/m 2,7 km/h (1 Bft) S 179 0 min 0,000 mm 0,0 UV-I 5 W/m 1,5 C 1,8 C 4,8 km/h (1 Bft) 100,00 %
10.10.2016 07:24 1,7 C 98 % 1022,9 hPa 0,0 l/m 2,9 km/h (1 Bft) S 179 0 min 0,000 mm 0,0 UV-I 5 W/m 1,4 C 1,7 C 4,8 km/h (1 Bft) 97,87 %
10.10.2016 07:26 1,8 C 98 % 1022,9 hPa 0,0 l/m 1,1 km/h (1 Bft) S 179 0 min 0,000 mm 0,0 UV-I 7 W/m 1,5 C 1,8 C 3,2 km/h (1 Bft) 97,92 %
10.10.2016 07:28 1,7 C 98 % 1022,9 hPa 0,0 l/m 2,7 km/h (1 Bft) S 179 0 min 0,000 mm 0,0 UV-I 8 W/m 1,4 C 1,7 C 4,8 km/h (1 Bft) 100,00 %
10.10.2016 07:30 1,7 C 98 % 1022,9 hPa 0,0 l/m 2,5 km/h (1 Bft) S 179 0 min 0,000 mm 0,0 UV-I 9 W/m 1,4 C 1,7 C 4,8 km/h (1 Bft) 95,74 %
10.10.2016 07:32 1,7 C 98 % 1022,9 hPa 0,0 l/m 1,7 km/h (1 Bft) S 179 0 min 0,000 mm 0,0 UV-I 11 W/m 1,4 C 1,7 C 3,2 km/h (1 Bft) 100,00 %
10.10.2016 07:34 1,7 C 98 % 1022,9 hPa 0,0 l/m 2,6 km/h (1 Bft) S 179 0 min 0,000 mm 0,0 UV-I 12 W/m 1,4 C 1,7 C 4,8 km/h (1 Bft) 95,74 %
10.10.2016 07:36 1,6 C 98 % 1022,9 hPa 0,0 l/m 1,9 km/h (1 Bft) S 179 0 min 0,000 mm 0,0 UV-I 12 W/m 1,3 C 1,6 C 3,2 km/h (1 Bft) 100,00 %
10.10.2016 07:38 1,6 C 98 % 1022,9 hPa 0,0 l/m 2,3 km/h (1 Bft) S 179 0 min 0,000 mm 0,0 UV-I 13 W/m 1,3 C 1,6 C 4,8 km/h (1 Bft) 100,00 %
10.10.2016 07:40 1,6 C 98 % 1022,9 hPa 0,0 l/m 2,8 km/h (1 Bft) S 179 0 min 0,000 mm 0,0 UV-I 15 W/m 1,3 C 1,6 C 4,8 km/h (1 Bft) 100,00 %
10.10.2016 07:42 1,6 C 98 % 1022,9 hPa 0,0 l/m 1,1 km/h (1 Bft) S 179 0 min 0,000 mm 0,0 UV-I 17 W/m 1,3 C 1,6 C 3,2 km/h (1 Bft) 97,87 %
10.10.2016 07:44 1,6 C 98 % 1022,9 hPa 0,0 l/m 2,0 km/h (1 Bft) S 179 0 min 0,000 mm 0,0 UV-I 19 W/m 1,3 C 1,6 C 3,2 km/h (1 Bft) 97,87 %
10.10.2016 07:46 1,6 C 98 % 1022,9 hPa 0,0 l/m 2,2 km/h (1 Bft) S 179 0 min 0,000 mm 0,0 UV-I 20 W/m 1,3 C 1,6 C 4,8 km/h (1 Bft) 96,00 %
10.10.2016 07:48 1,7 C 98 % 1022,9 hPa 0,0 l/m 3,0 km/h (1 Bft) S 179 0 min 0,000 mm 0,0 UV-I 21 W/m 1,4 C 1,7 C 6,4 km/h (2 Bft) 97,87 %
10.10.2016 07:50 1,7 C 98 % 1022,9 hPa 0,0 l/m 2,5 km/h (1 Bft) S 179 0 min 0,000 mm 0,0 UV-I 21 W/m 1,4 C 1,7 C 4,8 km/h (1 Bft) 95,74 %
10.10.2016 07:52 1,7 C 98 % 1022,9 hPa 0,0 l/m 2,2 km/h (1 Bft) S 179 0 min 0,000 mm 0,0 UV-I 24 W/m 1,4 C 1,7 C 4,8 km/h (1 Bft) 100,00 %
10.10.2016 07:54 1,7 C 98 % 1022,9 hPa 0,0 l/m 2,2 km/h (1 Bft) S 179 0 min 0,000 mm 0,0 UV-I 26 W/m 1,4 C 1,7 C 4,8 km/h (1 Bft) 100,00 %
10.10.2016 07:56 1,7 C 98 % 1022,9 hPa 0,0 l/m 3,4 km/h (1 Bft) S 179 0 min 0,000 mm 0,0 UV-I 28 W/m 1,4 C 1,7 C 4,8 km/h (1 Bft) 97,87 %
10.10.2016 07:58 1,7 C 98 % 1022,9 hPa 0,0 l/m 3,2 km/h (1 Bft) S 179 0 min 0,000 mm 0,0 UV-I 32 W/m 1,4 C 1,7 C 4,8 km/h (1 Bft) 97,87 %
10.10.2016 08:00 1,7 C 98 % 1022,9 hPa 0,0 l/m 3,2 km/h (1 Bft) S 179 0 min 0,000 mm 0,0 UV-I 34 W/m 1,4 C 1,7 C 4,8 km/h (1 Bft) 95,74 %
10.10.2016 08:02 1,7 C 98 % 1022,9 hPa 0,0 l/m 3,0 km/h (1 Bft) S 175 0 min 0,000 mm 0,0 UV-I 36 W/m 1,4 C 1,7 C 4,8 km/h (1 Bft) 97,87 %
10.10.2016 08:04 1,8 C 98 % 1022,9 hPa 0,0 l/m 3,6 km/h (1 Bft) S 182 0 min 0,000 mm 0,0 UV-I 38 W/m 1,5 C 1,8 C 6,4 km/h (2 Bft) 98,00 %
10.10.2016 08:06 1,8 C 98 % 1022,9 hPa 0,0 l/m 2,4 km/h (1 Bft) S 182 0 min 0,000 mm 0,0 UV-I 40 W/m 1,5 C 1,8 C 4,8 km/h (1 Bft) 97,92 %
10.10.2016 08:08 1,9 C 98 % 1023,0 hPa 0,0 l/m 2,2 km/h (1 Bft) S 182 0 min 0,000 mm 0,0 UV-I 44 W/m 1,6 C 1,9 C 3,2 km/h (1 Bft) 97,87 %
10.10.2016 08:10 2,0 C 98 % 1023,0 hPa 0,0 l/m 2,5 km/h (1 Bft) S 182 0 min 0,000 mm 0,0 UV-I 48 W/m 1,7 C 2,0 C 3,2 km/h (1 Bft) 100,00 %
10.10.2016 08:12 2,1 C 98 % 1023,0 hPa 0,0 l/m 2,4 km/h (1 Bft) S 182 0 min 0,000 mm 0,0 UV-I 52 W/m 1,8 C 2,1 C 4,8 km/h (1 Bft) 100,00 %
10.10.2016 08:14 2,1 C 98 % 1023,0 hPa 0,0 l/m 1,8 km/h (1 Bft) S 182 0 min 0,000 mm 0,0 UV-I 63 W/m 1,8 C 2,1 C 4,8 km/h (1 Bft) 97,87 %
10.10.2016 08:16 2,2 C 98 % 1023,0 hPa 0,0 l/m 2,8 km/h (1 Bft) S 182 0 min 0,000 mm 0,0 UV-I 64 W/m 1,9 C 2,2 C 4,8 km/h (1 Bft) 100,00 %
10.10.2016 08:18 2,2 C 98 % 1023,0 hPa 0,0 l/m 1,3 km/h (1 Bft) S 182 0 min 0,000 mm 0,0 UV-I 53 W/m 1,9 C 2,2 C 3,2 km/h (1 Bft) 100,00 %
10.10.2016 08:20 2,2 C 98 % 1023,1 hPa 0,0 l/m 1,8 km/h (1 Bft) S 182 0 min 0,000 mm 0,0 UV-I 53 W/m 1,9 C 2,2 C 3,2 km/h (1 Bft) 97,87 %
10.10.2016 08:22 2,3 C 98 % 1023,1 hPa 0,0 l/m 1,3 km/h (1 Bft) S 182 0 min 0,000 mm 0,0 UV-I 53 W/m 2,0 C 2,3 C 3,2 km/h (1 Bft) 97,87 %
10.10.2016 08:24 2,3 C 98 % 1023,1 hPa 0,0 l/m 3,5 km/h (1 Bft) S 182 0 min 0,000 mm 0,0 UV-I 53 W/m 2,0 C 2,3 C 4,8 km/h (1 Bft) 100,00 %
10.10.2016 08:26 2,3 C 98 % 1023,1 hPa 0,0 l/m 3,9 km/h (1 Bft) S 182 0 min 0,000 mm 0,0 UV-I 53 W/m 2,0 C 2,3 C 4,8 km/h (1 Bft) 97,87 %
10.10.2016 08:28 2,3 C 98 % 1023,1 hPa 0,0 l/m 2,9 km/h (1 Bft) S 182 0 min 0,000 mm 0,0 UV-I 55 W/m 2,0 C 2,3 C 4,8 km/h (1 Bft) 97,87 %
10.10.2016 08:30 2,4 C 98 % 1023,1 hPa 0,0 l/m 3,2 km/h (1 Bft) S 182 0 min 0,000 mm 0,0 UV-I 56 W/m 2,1 C 2,4 C 4,8 km/h (1 Bft) 100,00 %
10.10.2016 08:32 2,4 C 98 % 1023,1 hPa 0,0 l/m 2,1 km/h (1 Bft) S 182 0 min 0,000 mm 0,0 UV-I 58 W/m 2,1 C 2,4 C 3,2 km/h (1 Bft) 100,00 %
10.10.2016 08:34 2,5 C 98 % 1023,1 hPa 0,0 l/m 1,9 km/h (1 Bft) S 182 0 min 0,000 mm 0,0 UV-I 58 W/m 2,2 C 2,5 C 3,2 km/h (1 Bft) 100,00 %
10.10.2016 08:36 2,6 C 98 % 1023,1 hPa 0,0 l/m 0,8 km/h (0 Bft) S 182 0 min 0,000 mm 0,0 UV-I 58 W/m 2,3 C 2,6 C 3,2 km/h (1 Bft) 100,00 %
10.10.2016 08:38 2,6 C 98 % 1023,1 hPa 0,0 l/m 1,8 km/h (1 Bft) S 182 0 min 0,000 mm 0,0 UV-I 60 W/m 2,3 C 2,6 C 3,2 km/h (1 Bft) 100,00 %
10.10.2016 08:40 2,6 C 98 % 1023,1 hPa 0,0 l/m 2,1 km/h (1 Bft) S 182 0 min 0,000 mm 0,0 UV-I 64 W/m 2,3 C 2,6 C 3,2 km/h (1 Bft) 100,00 %
10.10.2016 08:42 2,7 C 98 % 1023,1 hPa 0,0 l/m 2,7 km/h (1 Bft) S 182 0 min 0,000 mm 0,0 UV-I 68 W/m 2,4 C 2,7 C 4,8 km/h (1 Bft) 95,74 %
10.10.2016 08:44 2,7 C 98 % 1023,0 hPa 0,0 l/m 2,5 km/h (1 Bft) S 182 0 min 0,000 mm 0,0 UV-I 70 W/m 2,4 C 2,7 C 4,8 km/h (1 Bft) 100,00 %
10.10.2016 08:46 2,7 C 98 % 1023,0 hPa 0,0 l/m 2,2 km/h (1 Bft) S 182 0 min 0,000 mm 0,0 UV-I 70 W/m 2,4 C 2,7 C 3,2 km/h (1 Bft) 95,74 %
10.10.2016 08:48 2,8 C 98 % 1023,0 hPa 0,0 l/m 1,2 km/h (1 Bft) S 182 0 min 0,000 mm 0,0 UV-I 70 W/m 2,5 C 2,8 C 3,2 km/h (1 Bft) 95,74 %
10.10.2016 08:50 2,8 C 98 % 1023,1 hPa 0,0 l/m 2,2 km/h (1 Bft) S 182 0 min 0,000 mm 0,0 UV-I 72 W/m 2,5 C 2,8 C 3,2 km/h (1 Bft) 95,74 %
10.10.2016 08:52 2,9 C 98 % 1023,0 hPa 0,0 l/m 1,1 km/h (1 Bft) S 182 0 min 0,000 mm 0,0 UV-I 72 W/m 2,6 C 2,9 C 3,2 km/h (1 Bft) 97,87 %
10.10.2016 08:54 2,9 C 98 % 1023,0 hPa 0,0 l/m 1,4 km/h (1 Bft) S 182 0 min 0,000 mm 0,0 UV-I 71 W/m 2,6 C 2,9 C 3,2 km/h (1 Bft) 97,87 %
10.10.2016 08:56 3,0 C 98 % 1023,1 hPa 0,0 l/m 0,8 km/h (0 Bft) S 182 0 min 0,000 mm 0,0 UV-I 70 W/m 2,7 C 3,0 C 1,6 km/h (1 Bft) 97,87 %
10.10.2016 08:58 3,1 C 98 % 1023,1 hPa 0,0 l/m 1,6 km/h (1 Bft) S 182 0 min 0,000 mm 0,0 UV-I 68 W/m 2,8 C 3,1 C 4,8 km/h (1 Bft) 96,00 %
10.10.2016 09:00 3,2 C 98 % 1023,1 hPa 0,0 l/m 2,6 km/h (1 Bft) S 182 0 min 0,025 mm 0,0 UV-I 67 W/m 2,9 C 3,2 C 4,8 km/h (1 Bft) 97,87 %
10.10.2016 09:02 3,2 C 98 % 1023,1 hPa 0,0 l/m 2,5 km/h (1 Bft) S 182 0 min 0,000 mm 0,0 UV-I 67 W/m 2,9 C 3,2 C 3,2 km/h (1 Bft) 96,00 %
10.10.2016 09:04 3,3 C 98 % 1023,1 hPa 0,0 l/m 3,4 km/h (1 Bft) S 182 0 min 0,000 mm 0,0 UV-I 67 W/m 3,0 C 3,3 C 4,8 km/h (1 Bft) 95,74 %
10.10.2016 09:06 3,4 C 98 % 1023,1 hPa 0,0 l/m 3,8 km/h (1 Bft) S 182 0 min 0,000 mm 0,0 UV-I 65 W/m 3,1 C 3,4 C 4,8 km/h (1 Bft) 95,74 %
10.10.2016 09:08 3,4 C 98 % 1023,1 hPa 0,0 l/m 4,2 km/h (1 Bft) S 182 0 min 0,000 mm 0,0 UV-I 65 W/m 3,1 C 3,4 C 6,4 km/h (2 Bft) 95,74 %
10.10.2016 09:10 3,4 C 98 % 1023,1 hPa 0,0 l/m 2,1 km/h (1 Bft) S 182 0 min 0,000 mm 0,0 UV-I 65 W/m 3,1 C 3,4 C 4,8 km/h (1 Bft) 97,87 %
10.10.2016 09:12 3,4 C 98 % 1023,1 hPa 0,0 l/m 2,0 km/h (1 Bft) S 182 0 min 0,000 mm 0,0 UV-I 65 W/m 3,1 C 3,4 C 3,2 km/h (1 Bft) 97,87 %
10.10.2016 09:14 3,4 C 98 % 1023,1 hPa 0,0 l/m 1,9 km/h (1 Bft) S 182 0 min 0,000 mm 0,0 UV-I 65 W/m 3,1 C 3,4 C 4,8 km/h (1 Bft) 94,29 %
10.10.2016 09:16 3,4 C 98 % 1023,1 hPa 0,0 l/m 2,3 km/h (1 Bft) S 182 0 min 0,000 mm 0,0 UV-I 64 W/m 3,1 C 3,4 C 4,8 km/h (1 Bft) 98,08 %
10.10.2016 09:18 3,4 C 98 % 1023,1 hPa 0,0 l/m 0,6 km/h (0 Bft) S 182 0 min 0,000 mm 0,0 UV-I 62 W/m 3,1 C 3,4 C 1,6 km/h (1 Bft) 96,00 %
10.10.2016 09:20 3,4 C 98 % 1023,0 hPa 0,0 l/m 1,4 km/h (1 Bft) S 182 0 min 0,000 mm 0,0 UV-I 58 W/m 3,1 C 3,4 C 3,2 km/h (1 Bft) 95,74 %
10.10.2016 09:22 3,4 C 98 % 1023,1 hPa 0,0 l/m 0,8 km/h (0 Bft) S 182 0 min 0,000 mm 0,0 UV-I 55 W/m 3,1 C 3,4 C 3,2 km/h (1 Bft) 100,00 %
10.10.2016 09:24 3,4 C 98 % 1023,1 hPa 0,0 l/m 1,6 km/h (1 Bft) S 182 0 min 0,000 mm 0,0 UV-I 52 W/m 3,1 C 3,4 C 3,2 km/h (1 Bft) 97,96 %
10.10.2016 09:26 3,6 C 98 % 1023,1 hPa 0,0 l/m 1,0 km/h (0 Bft) S 182 0 min 0,000 mm 0,0 UV-I 49 W/m 3,3 C 3,6 C 1,6 km/h (1 Bft) 93,75 %
10.10.2016 09:28 3,6 C 98 % 1023,1 hPa 0,0 l/m 0,5 km/h (0 Bft) S 182 0 min 0,000 mm 0,0 UV-I 47 W/m 3,3 C 3,6 C 1,6 km/h (1 Bft) 100,00 %
10.10.2016 09:30 3,6 C 98 % 1023,1 hPa 0,0 l/m 0,2 km/h (0 Bft) S 182 0 min 0,000 mm 0,0 UV-I 46 W/m 3,3 C 3,6 C 1,6 km/h (1 Bft) 100,00 %
10.10.2016 09:32 3,6 C 98 % 1023,1 hPa 0,0 l/m 0,0 km/h (0 Bft) S 182 0 min 0,000 mm 0,0 UV-I 45 W/m 3,3 C 3,6 C 0,0 km/h (0 Bft) 97,87 %
10.10.2016 09:34 3,6 C 98 % 1023,1 hPa 0,0 l/m 0,0 km/h (0 Bft) S 182 0 min 0,000 mm 0,0 UV-I 44 W/m 3,3 C 3,6 C 0,0 km/h (0 Bft) 100,00 %
10.10.2016 09:36 3,7 C 98 % 1023,1 hPa 0,0 l/m 0,0 km/h (0 Bft) S 182 0 min 0,000 mm 0,0 UV-I 46 W/m 3,4 C 3,7 C 0,0 km/h (0 Bft) 100,00 %
10.10.2016 09:38 3,7 C 98 % 1023,2 hPa 0,0 l/m 0,0 km/h (0 Bft) S 182 0 min 0,000 mm 0,0 UV-I 48 W/m 3,4 C 3,7 C 0,0 km/h (0 Bft) 100,00 %
10.10.2016 09:40 3,8 C 98 % 1023,1 hPa 0,0 l/m 0,0 km/h (0 Bft) S 182 0 min 0,000 mm 0,0 UV-I 52 W/m 3,5 C 3,8 C 0,0 km/h (0 Bft) 100,00 %
10.10.2016 09:42 3,8 C 98 % 1023,1 hPa 0,0 l/m 0,0 km/h (0 Bft) S 182 0 min 0,000 mm 0,0 UV-I 55 W/m 3,5 C 3,8 C 0,0 km/h (0 Bft) 100,00 %
10.10.2016 09:44 3,8 C 98 % 1023,1 hPa 0,0 l/m 0,0 km/h (0 Bft) S 182 0 min 0,000 mm 0,0 UV-I 58 W/m 3,5 C 3,8 C 0,0 km/h (0 Bft) 97,87 %
10.10.2016 09:46 3,9 C 98 % 1023,1 hPa 0,0 l/m 0,0 km/h (0 Bft) S 182 0 min 0,000 mm 0,0 UV-I 61 W/m 3,6 C 3,9 C 0,0 km/h (0 Bft) 97,87 %
10.10.2016 09:48 3,9 C 98 % 1023,1 hPa 0,0 l/m 0,0 km/h (0 Bft) S 182 0 min 0,000 mm 0,0 UV-I 63 W/m 3,6 C 3,9 C 1,6 km/h (1 Bft) 97,87 %
10.10.2016 09:50 4,0 C 98 % 1023,1 hPa 0,0 l/m 0,0 km/h (0 Bft) S 182 0 min 0,000 mm 0,0 UV-I 66 W/m 3,7 C 4,0 C 1,6 km/h (1 Bft) 100,00 %
10.10.2016 09:52 4,1 C 98 % 1023,1 hPa 0,0 l/m 0,0 km/h (0 Bft) S 182 0 min 0,000 mm 0,0 UV-I 67 W/m 3,8 C 4,1 C 0,0 km/h (0 Bft) 93,62 %
10.10.2016 09:54 4,1 C 98 % 1023,1 hPa 0,0 l/m 0,0 km/h (0 Bft) S 182 0 min 0,000 mm 0,0 UV-I 68 W/m 3,8 C 4,1 C 0,0 km/h (0 Bft) 97,87 %
10.10.2016 09:56 4,2 C 98 % 1023,1 hPa 0,0 l/m 0,1 km/h (0 Bft) S 182 0 min 0,000 mm 0,0 UV-I 69 W/m 3,9 C 4,2 C 1,6 km/h (1 Bft) 100,00 %
10.10.2016 09:58 4,2 C 98 % 1023,1 hPa 0,0 l/m 0,1 km/h (0 Bft) S 182 0 min 0,000 mm 0,0 UV-I 71 W/m 3,9 C 4,2 C 1,6 km/h (1 Bft) 100,00 %
10.10.2016 10:00 4,2 C 98 % 1023,1 hPa 0,0 l/m 0,0 km/h (0 Bft) S 182 0 min 0,026 mm 0,0 UV-I 75 W/m 3,9 C 4,2 C 0,0 km/h (0 Bft) 97,87 %
10.10.2016 10:02 4,2 C 98 % 1023,1 hPa 0,0 l/m 0,2 km/h (0 Bft) S 182 0 min 0,000 mm 0,0 UV-I 75 W/m 3,9 C 4,2 C 1,6 km/h (1 Bft) 96,55 %
10.10.2016 10:04 4,2 C 98 % 1023,1 hPa 0,0 l/m 1,0 km/h (0 Bft) S 182 0 min 0,000 mm 0,0 UV-I 74 W/m 3,9 C 4,2 C 3,2 km/h (1 Bft) 100,00 %
10.10.2016 10:06 4,3 C 98 % 1023,1 hPa 0,0 l/m 0,8 km/h (0 Bft) S 182 0 min 0,000 mm 0,0 UV-I 76 W/m 4,0 C 4,3 C 3,2 km/h (1 Bft) 100,00 %
10.10.2016 10:08 4,3 C 98 % 1023,2 hPa 0,0 l/m 1,8 km/h (1 Bft) S 182 0 min 0,000 mm 0,0 UV-I 80 W/m 4,0 C 4,3 C 3,2 km/h (1 Bft) 100,00 %
10.10.2016 10:10 4,3 C 98 % 1023,1 hPa 0,0 l/m 1,6 km/h (1 Bft) S 182 0 min 0,000 mm 0,0 UV-I 87 W/m 4,0 C 4,3 C 3,2 km/h (1 Bft) 100,00 %
10.10.2016 10:12 4,3 C 98 % 1023,1 hPa 0,0 l/m 0,6 km/h (0 Bft) S 182 0 min 0,000 mm 0,0 UV-I 95 W/m 4,0 C 4,3 C 1,6 km/h (1 Bft) 100,00 %
10.10.2016 10:14 4,4 C 98 % 1023,1 hPa 0,0 l/m 2,0 km/h (1 Bft) S 182 0 min 0,000 mm 0,0 UV-I 102 W/m 4,1 C 4,4 C 3,2 km/h (1 Bft) 100,00 %
10.10.2016 10:16 4,4 C 98 % 1023,1 hPa 0,0 l/m 1,5 km/h (1 Bft) S 182 0 min 0,000 mm 0,0 UV-I 107 W/m 4,1 C 4,4 C 3,2 km/h (1 Bft) 100,00 %
10.10.2016 10:18 4,5 C 98 % 1023,1 hPa 0,0 l/m 2,0 km/h (1 Bft) S 182 0 min 0,000 mm 0,0 UV-I 111 W/m 4,2 C 4,5 C 3,2 km/h (1 Bft) 100,00 %
10.10.2016 10:20 4,6 C 98 % 1023,1 hPa 0,0 l/m 1,0 km/h (0 Bft) S 182 0 min 0,000 mm 0,0 UV-I 116 W/m 4,3 C 4,6 C 3,2 km/h (1 Bft) 98,00 %
10.10.2016 10:22 4,6 C 98 % 1023,1 hPa 0,0 l/m 0,2 km/h (0 Bft) S 182 0 min 0,000 mm 0,0 UV-I 121 W/m 4,3 C 4,6 C 1,6 km/h (1 Bft) 100,00 %
10.10.2016 10:24 4,7 C 98 % 1023,1 hPa 0,0 l/m 2,0 km/h (1 Bft) S 182 0 min 0,000 mm 0,0 UV-I 130 W/m 4,4 C 4,7 C 3,2 km/h (1 Bft) 100,00 %
10.10.2016 10:26 4,8 C 98 % 1023,1 hPa 0,0 l/m 1,0 km/h (0 Bft) S 182 0 min 0,000 mm 0,2 UV-I 137 W/m 4,5 C 4,8 C 3,2 km/h (1 Bft) 95,74 %
10.10.2016 10:28 4,8 C 98 % 1023,1 hPa 0,0 l/m 0,7 km/h (0 Bft) S 182 0 min 0,000 mm 0,5 UV-I 150 W/m 4,5 C 4,8 C 3,2 km/h (1 Bft) 100,00 %
10.10.2016 10:30 4,8 C 98 % 1023,1 hPa 0,0 l/m 0,6 km/h (0 Bft) S 182 0 min 0,000 mm 0,5 UV-I 155 W/m 4,5 C 4,8 C 1,6 km/h (1 Bft) 97,87 %
10.10.2016 10:32 4,8 C 98 % 1023,1 hPa 0,0 l/m 0,3 km/h (0 Bft) S 182 0 min 0,000 mm 0,5 UV-I 156 W/m 4,5 C 4,8 C 1,6 km/h (1 Bft) 95,74 %
10.10.2016 10:34 4,8 C 98 % 1023,1 hPa 0,0 l/m 0,1 km/h (0 Bft) S 182 0 min 0,000 mm 0,5 UV-I 154 W/m 4,5 C 4,8 C 1,6 km/h (1 Bft) 95,74 %
10.10.2016 10:36 4,8 C 98 % 1023,1 hPa 0,0 l/m 0,4 km/h (0 Bft) S 182 0 min 0,000 mm 0,5 UV-I 163 W/m 4,5 C 4,8 C 1,6 km/h (1 Bft) 100,00 %
10.10.2016 10:38 5,0 C 98 % 1023,0 hPa 0,0 l/m 0,0 km/h (0 Bft) S 182 0 min 0,000 mm 0,6 UV-I 174 W/m 4,7 C 5,0 C 1,6 km/h (1 Bft) 100,00 %
10.10.2016 10:40 5,0 C 98 % 1023,0 hPa 0,0 l/m 0,3 km/h (0 Bft) S 182 0 min 0,000 mm 0,6 UV-I 176 W/m 4,7 C 5,0 C 1,6 km/h (1 Bft) 100,00 %
10.10.2016 10:42 5,1 C 98 % 1023,0 hPa 0,0 l/m 0,8 km/h (0 Bft) S 182 0 min 0,000 mm 0,6 UV-I 172 W/m 4,8 C 5,1 C 1,6 km/h (1 Bft) 100,00 %
10.10.2016 10:44 5,2 C 98 % 1023,0 hPa 0,0 l/m 0,3 km/h (0 Bft) S 182 0 min 0,000 mm 0,6 UV-I 164 W/m 4,9 C 5,2 C 1,6 km/h (1 Bft) 100,00 %
10.10.2016 10:46 5,2 C 98 % 1023,0 hPa 0,0 l/m 0,9 km/h (0 Bft) S 182 0 min 0,000 mm 0,6 UV-I 170 W/m 4,9 C 5,2 C 3,2 km/h (1 Bft) 97,87 %
10.10.2016 10:48 5,3 C 98 % 1023,0 hPa 0,0 l/m 1,6 km/h (1 Bft) S 182 0 min 0,000 mm 0,6 UV-I 166 W/m 5,0 C 5,3 C 3,2 km/h (1 Bft) 95,74 %
10.10.2016 10:50 5,4 C 98 % 1023,0 hPa 0,0 l/m 1,1 km/h (1 Bft) S 182 0 min 0,000 mm 0,6 UV-I 180 W/m 5,1 C 5,4 C 3,2 km/h (1 Bft) 95,74 %
10.10.2016 10:52 5,5 C 98 % 1022,9 hPa 0,0 l/m 3,9 km/h (1 Bft) O-SO 116 0 min 0,000 mm 0,7 UV-I 192 W/m 5,2 C 5,5 C 6,4 km/h (2 Bft) 97,87 %
10.10.2016 10:54 5,6 C 98 % 1023,0 hPa 0,0 l/m 2,7 km/h (1 Bft) O-SO 115 0 min 0,000 mm 0,7 UV-I 201 W/m 5,3 C 5,6 C 4,8 km/h (1 Bft) 95,74 %
10.10.2016 10:56 5,7 C 98 % 1022,9 hPa 0,0 l/m 4,4 km/h (1 Bft) O 79 0 min 0,000 mm 0,7 UV-I 211 W/m 5,4 C 5,7 C 6,4 km/h (2 Bft) 98,00 %
10.10.2016 10:58 5,8 C 98 % 1023,0 hPa 0,0 l/m 3,0 km/h (1 Bft) O-NO 69 0 min 0,000 mm 0,8 UV-I 216 W/m 5,5 C 5,8 C 6,4 km/h (2 Bft) 95,74 %
10.10.2016 11:00 5,8 C 97 % 1023,0 hPa 0,0 l/m 5,0 km/h (1 Bft) O-NO 69 0 min 0,051 mm 0,8 UV-I 221 W/m 5,4 C 5,8 C 6,4 km/h (2 Bft) 95,74 %
10.10.2016 11:02 5,8 C 97 % 1022,9 hPa 0,0 l/m 4,5 km/h (1 Bft) O-NO 69 0 min 0,000 mm 0,8 UV-I 222 W/m 5,4 C 5,8 C 6,4 km/h (2 Bft) 91,49 %
10.10.2016 11:04 5,9 C 97 % 1022,9 hPa 0,0 l/m 3,0 km/h (1 Bft) O-NO 69 0 min 0,000 mm 0,8 UV-I 219 W/m 5,5 C 5,9 C 6,4 km/h (2 Bft) 95,74 %
10.10.2016 11:06 6,0 C 97 % 1022,9 hPa 0,0 l/m 2,6 km/h (1 Bft) O-NO 69 0 min 0,000 mm 0,9 UV-I 225 W/m 5,6 C 6,0 C 4,8 km/h (1 Bft) 97,37 %
10.10.2016 11:08 6,1 C 97 % 1022,9 hPa 0,0 l/m 4,0 km/h (1 Bft) O-NO 68 0 min 0,000 mm 0,9 UV-I 244 W/m 5,7 C 6,1 C 6,4 km/h (2 Bft) 97,87 %
10.10.2016 11:10 6,1 C 97 % 1022,9 hPa 0,0 l/m 5,8 km/h (2 Bft) O-NO 69 0 min 0,000 mm 1,0 UV-I 254 W/m 5,7 C 6,1 C 8,0 km/h (2 Bft) 93,62 %
10.10.2016 11:12 6,1 C 97 % 1022,9 hPa 0,0 l/m 3,8 km/h (1 Bft) O-NO 64 0 min 0,000 mm 1,0 UV-I 261 W/m 5,7 C 6,1 C 6,4 km/h (2 Bft) 95,74 %
10.10.2016 11:14 6,2 C 97 % 1022,9 hPa 0,0 l/m 4,8 km/h (1 Bft) NO 48 0 min 0,000 mm 1,0 UV-I 271 W/m 5,8 C 6,2 C 8,0 km/h (2 Bft) 97,87 %
10.10.2016 11:16 6,3 C 97 % 1022,9 hPa 0,0 l/m 4,1 km/h (1 Bft) NO 46 0 min 0,000 mm 1,0 UV-I 273 W/m 5,9 C 6,3 C 6,4 km/h (2 Bft) 98,00 %
10.10.2016 11:18 6,4 C 97 % 1022,8 hPa 0,0 l/m 3,8 km/h (1 Bft) NO 53 0 min 0,000 mm 1,0 UV-I 275 W/m 6,0 C 6,4 C 4,8 km/h (1 Bft) 97,87 %
10.10.2016 11:20 6,3 C 96 % 1022,8 hPa 0,0 l/m 4,5 km/h (1 Bft) O-NO 67 0 min 0,000 mm 1,0 UV-I 286 W/m 5,7 C 6,3 C 6,4 km/h (2 Bft) 98,00 %
10.10.2016 11:22 6,5 C 96 % 1022,8 hPa 0,0 l/m 3,6 km/h (1 Bft) O-NO 67 2 min 0,000 mm 1,1 UV-I 325 W/m 5,9 C 6,5 C 4,8 km/h (1 Bft) 95,83 %
10.10.2016 11:24 6,7 C 96 % 1022,7 hPa 0,0 l/m 5,9 km/h (2 Bft) N-NO 22 2 min 0,000 mm 1,2 UV-I 384 W/m 6,1 C 6,7 C 9,7 km/h (2 Bft) 97,87 %
10.10.2016 11:26 6,9 C 97 % 1022,7 hPa 0,0 l/m 5,8 km/h (2 Bft) N-NO 22 2 min 0,000 mm 1,3 UV-I 463 W/m 6,5 C 6,9 C 9,7 km/h (2 Bft) 100,00 %
10.10.2016 11:28 7,2 C 96 % 1022,7 hPa 0,0 l/m 5,1 km/h (1 Bft) NO 38 2 min 0,000 mm 1,4 UV-I 483 W/m 6,6 C 7,2 C 9,7 km/h (2 Bft) 100,00 %
10.10.2016 11:30 7,3 C 96 % 1022,7 hPa 0,0 l/m 4,4 km/h (1 Bft) NO 44 2 min 0,000 mm 1,3 UV-I 456 W/m 6,7 C 7,3 C 9,7 km/h (2 Bft) 96,00 %
10.10.2016 11:32 7,5 C 96 % 1022,7 hPa 0,0 l/m 5,1 km/h (1 Bft) NO 50 2 min 0,000 mm 1,3 UV-I 395 W/m 6,9 C 7,5 C 8,0 km/h (2 Bft) 100,00 %
10.10.2016 11:34 7,6 C 95 % 1022,7 hPa 0,0 l/m 4,5 km/h (1 Bft) N-NO 27 2 min 0,000 mm 1,3 UV-I 428 W/m 6,9 C 7,6 C 8,0 km/h (2 Bft) 100,00 %
10.10.2016 11:36 7,7 C 95 % 1022,7 hPa 0,0 l/m 4,0 km/h (1 Bft) NO 37 2 min 0,000 mm 1,3 UV-I 401 W/m 7,0 C 7,7 C 8,0 km/h (2 Bft) 100,00 %
10.10.2016 11:38 7,7 C 94 % 1022,7 hPa 0,0 l/m 6,0 km/h (2 Bft) NO 42 2 min 0,000 mm 1,3 UV-I 383 W/m 6,8 C 7,7 C 8,0 km/h (2 Bft) 100,00 %
10.10.2016 11:40 7,7 C 94 % 1022,7 hPa 0,0 l/m 6,0 km/h (2 Bft) O-NO 74 2 min 0,000 mm 1,3 UV-I 370 W/m 6,8 C 7,7 C 11,3 km/h (2 Bft) 100,00 %
10.10.2016 11:42 7,8 C 93 % 1022,7 hPa 0,0 l/m 6,3 km/h (2 Bft) O-NO 67 2 min 0,000 mm 1,3 UV-I 361 W/m 6,7 C 7,8 C 11,3 km/h (2 Bft) 100,00 %
10.10.2016 11:44 7,8 C 92 % 1022,7 hPa 0,0 l/m 6,8 km/h (2 Bft) O-NO 63 2 min 0,000 mm 1,3 UV-I 393 W/m 6,6 C 7,5 C 9,7 km/h (2 Bft) 100,00 %
10.10.2016 11:46 7,8 C 91 % 1022,6 hPa 0,0 l/m 5,4 km/h (1 Bft) NO 41 2 min 0,000 mm 1,3 UV-I 369 W/m 6,4 C 7,8 C 9,7 km/h (2 Bft) 100,00 %
10.10.2016 11:48 7,8 C 91 % 1022,6 hPa 0,0 l/m 5,4 km/h (1 Bft) NO 46 2 min 0,000 mm 1,3 UV-I 353 W/m 6,4 C 7,8 C 12,9 km/h (3 Bft) 97,87 %
10.10.2016 11:50 7,9 C 92 % 1022,6 hPa 0,0 l/m 6,4 km/h (2 Bft) NO 35 2 min 0,000 mm 1,3 UV-I 345 W/m 6,7 C 7,9 C 9,7 km/h (2 Bft) 100,00 %
10.10.2016 11:52 8,1 C 92 % 1022,6 hPa 0,0 l/m 4,2 km/h (1 Bft) NO 49 2 min 0,000 mm 1,3 UV-I 348 W/m 6,9 C 8,1 C 9,7 km/h (2 Bft) 97,87 %
10.10.2016 11:54 8,1 C 91 % 1022,6 hPa 0,0 l/m 6,7 km/h (2 Bft) NO 52 2 min 0,000 mm 1,3 UV-I 358 W/m 6,7 C 7,9 C 8,0 km/h (2 Bft) 100,00 %
10.10.2016 11:56 8,2 C 90 % 1022,6 hPa 0,0 l/m 8,2 km/h (2 Bft) O-NO 69 2 min 0,000 mm 1,4 UV-I 372 W/m 6,7 C 6,8 C 12,9 km/h (3 Bft) 95,74 %
10.10.2016 11:58 8,2 C 89 % 1022,5 hPa 0,0 l/m 8,3 km/h (2 Bft) O-NO 68 2 min 0,000 mm 1,4 UV-I 365 W/m 6,5 C 6,7 C 16,1 km/h (3 Bft) 100,00 %
10.10.2016 12:00 8,1 C 89 % 1022,6 hPa 0,0 l/m 8,6 km/h (2 Bft) O-NO 65 2 min 0,152 mm 1,4 UV-I 366 W/m 6,4 C 6,4 C 12,9 km/h (3 Bft) 97,87 %
10.10.2016 12:02 8,1 C 88 % 1022,5 hPa 0,0 l/m 7,9 km/h (2 Bft) O 82 2 min 0,000 mm 1,4 UV-I 380 W/m 6,2 C 6,9 C 12,9 km/h (3 Bft) 97,87 %
10.10.2016 12:04 8,2 C 88 % 1022,5 hPa 0,0 l/m 9,5 km/h (2 Bft) O-NO 76 2 min 0,000 mm 1,5 UV-I 422 W/m 6,3 C 5,9 C 12,9 km/h (3 Bft) 96,00 %
10.10.2016 12:06 8,2 C 88 % 1022,4 hPa 0,0 l/m 7,3 km/h (2 Bft) NO 55 2 min 0,000 mm 1,5 UV-I 440 W/m 6,3 C 7,5 C 11,3 km/h (2 Bft) 97,87 %
10.10.2016 12:08 8,3 C 88 % 1022,4 hPa 0,0 l/m 6,6 km/h (2 Bft) NO 52 2 min 0,000 mm 1,5 UV-I 440 W/m 6,4 C 8,2 C 9,7 km/h (2 Bft) 95,74 %
10.10.2016 12:10 8,4 C 87 % 1022,3 hPa 0,0 l/m 6,9 km/h (2 Bft) O-NO 64 2 min 0,000 mm 1,5 UV-I 406 W/m 6,4 C 8,0 C 12,9 km/h (3 Bft) 96,23 %
10.10.2016 12:12 8,4 C 87 % 1022,4 hPa 0,0 l/m 6,1 km/h (2 Bft) NO 37 2 min 0,000 mm 1,5 UV-I 412 W/m 6,4 C 8,4 C 11,3 km/h (2 Bft) 100,00 %
10.10.2016 12:14 8,5 C 86 % 1022,3 hPa 0,0 l/m 6,4 km/h (2 Bft) O-NO 61 2 min 0,000 mm 1,6 UV-I 432 W/m 6,3 C 8,5 C 11,3 km/h (2 Bft) 97,87 %
10.10.2016 12:16 8,6 C 85 % 1022,2 hPa 0,0 l/m 7,9 km/h (2 Bft) NO 44 2 min 0,000 mm 1,6 UV-I 431 W/m 6,2 C 7,5 C 11,3 km/h (2 Bft) 100,00 %
10.10.2016 12:18 8,7 C 86 % 1022,3 hPa 0,0 l/m 8,1 km/h (2 Bft) NO 35 2 min 0,000 mm 1,6 UV-I 425 W/m 6,5 C 7,4 C 11,3 km/h (2 Bft) 100,00 %
10.10.2016 12:20 8,8 C 86 % 1022,2 hPa 0,0 l/m 9,3 km/h (2 Bft) N-NO 17 2 min 0,000 mm 1,6 UV-I 429 W/m 6,6 C 6,7 C 14,5 km/h (3 Bft) 100,00 %
10.10.2016 12:22 8,9 C 84 % 1022,2 hPa 0,0 l/m 9,2 km/h (2 Bft) NO 47 2 min 0,000 mm 1,6 UV-I 465 W/m 6,3 C 6,9 C 12,9 km/h (3 Bft) 100,00 %
10.10.2016 12:24 8,9 C 83 % 1022,1 hPa 0,0 l/m 6,5 km/h (2 Bft) NO 38 2 min 0,000 mm 1,7 UV-I 505 W/m 6,2 C 8,9 C 14,5 km/h (3 Bft) 97,87 %
10.10.2016 12:26 9,0 C 84 % 1022,1 hPa 0,0 l/m 10,4 km/h (2 Bft) N-NO 26 2 min 0,000 mm 1,7 UV-I 495 W/m 6,4 C 6,3 C 16,1 km/h (3 Bft) 100,00 %
10.10.2016 12:28 9,1 C 85 % 1022,1 hPa 0,0 l/m 6,6 km/h (2 Bft) NO 49 2 min 0,000 mm 1,8 UV-I 489 W/m 6,7 C 9,0 C 12,9 km/h (3 Bft) 100,00 %
10.10.2016 12:30 9,2 C 83 % 1022,1 hPa 0,0 l/m 8,8 km/h (2 Bft) O 83 2 min 0,000 mm 1,8 UV-I 520 W/m 6,5 C 7,5 C 14,5 km/h (3 Bft) 95,74 %
10.10.2016 12:32 9,2 C 82 % 1022,0 hPa 0,0 l/m 8,1 km/h (2 Bft) NO 50 2 min 0,000 mm 1,8 UV-I 522 W/m 6,3 C 7,9 C 14,5 km/h (3 Bft) 93,62 %
10.10.2016 12:34 9,2 C 81 % 1022,0 hPa 0,0 l/m 10,8 km/h (2 Bft) O-NO 77 2 min 0,000 mm 1,7 UV-I 483 W/m 6,1 C 6,2 C 16,1 km/h (3 Bft) 97,87 %
10.10.2016 12:36 9,3 C 81 % 1022,0 hPa 0,0 l/m 9,6 km/h (2 Bft) NO 45 2 min 0,000 mm 1,7 UV-I 450 W/m 6,2 C 7,1 C 14,5 km/h (3 Bft) 95,74 %
10.10.2016 12:38 9,5 C 83 % 1022,0 hPa 0,0 l/m 6,0 km/h (2 Bft) NO 41 2 min 0,000 mm 2,0 UV-I 656 W/m 6,8 C 9,5 C 9,7 km/h (2 Bft) 97,87 %
10.10.2016 12:40 9,8 C 82 % 1021,9 hPa 0,0 l/m 9,2 km/h (2 Bft) O-NO 72 2 min 0,000 mm 2,1 UV-I 753 W/m 6,9 C 7,9 C 16,1 km/h (3 Bft) 97,44 %
10.10.2016 12:42 9,9 C 80 % 1022,0 hPa 0,0 l/m 6,3 km/h (2 Bft) NO 54 2 min 0,000 mm 2,1 UV-I 788 W/m 6,6 C 9,9 C 9,7 km/h (2 Bft) 94,00 %
10.10.2016 12:44 10,1 C 80 % 1021,9 hPa 0,0 l/m 11,1 km/h (2 Bft) N-NO 33 2 min 0,000 mm 1,9 UV-I 732 W/m 6,8 C 7,1 C 17,7 km/h (3 Bft) 93,62 %
10.10.2016 12:46 10,2 C 76 % 1021,9 hPa 0,0 l/m 11,7 km/h (2 Bft) NO 44 2 min 0,000 mm 2,0 UV-I 674 W/m 6,2 C 6,9 C 19,3 km/h (3 Bft) 95,74 %
10.10.2016 12:48 10,2 C 74 % 1021,8 hPa 0,0 l/m 12,8 km/h (3 Bft) O-NO 63 2 min 0,000 mm 1,9 UV-I 711 W/m 5,8 C 6,4 C 20,9 km/h (4 Bft) 95,74 %
10.10.2016 12:50 10,2 C 72 % 1021,9 hPa 0,0 l/m 13,3 km/h (3 Bft) O-NO 61 2 min 0,000 mm 1,9 UV-I 497 W/m 5,4 C 6,1 C 17,7 km/h (3 Bft) 94,00 %
10.10.2016 12:52 10,2 C 73 % 1021,8 hPa 0,0 l/m 11,1 km/h (2 Bft) O-NO 74 2 min 0,000 mm 1,9 UV-I 578 W/m 5,6 C 7,2 C 17,7 km/h (3 Bft) 97,87 %
10.10.2016 12:54 10,2 C 72 % 1021,8 hPa 0,0 l/m 11,3 km/h (2 Bft) O-NO 61 2 min 0,000 mm 1,9 UV-I 573 W/m 5,4 C 7,1 C 19,3 km/h (3 Bft) 94,29 %
10.10.2016 12:56 10,2 C 76 % 1021,8 hPa 0,0 l/m 10,0 km/h (2 Bft) NO 46 2 min 0,000 mm 1,8 UV-I 605 W/m 6,2 C 7,8 C 16,1 km/h (3 Bft) 96,00 %
10.10.2016 12:58 10,3 C 79 % 1021,8 hPa 0,0 l/m 10,8 km/h (2 Bft) NO 42 2 min 0,000 mm 1,6 UV-I 439 W/m 6,8 C 7,5 C 20,9 km/h (4 Bft) 95,92 %
10.10.2016 13:00 10,2 C 77 % 1021,8 hPa 0,0 l/m 13,8 km/h (3 Bft) O-NO 60 2 min 0,254 mm 1,6 UV-I 435 W/m 6,4 C 5,9 C 20,9 km/h (4 Bft) 100,00 %
10.10.2016 13:02 10,2 C 77 % 1021,8 hPa 0,0 l/m 12,8 km/h (3 Bft) O-NO 74 2 min 0,000 mm 1,6 UV-I 463 W/m 6,4 C 6,4 C 19,3 km/h (3 Bft) 93,62 %
10.10.2016 13:04 10,2 C 78 % 1021,7 hPa 0,0 l/m 12,1 km/h (2 Bft) NO 47 2 min 0,000 mm 1,6 UV-I 477 W/m 6,5 C 6,7 C 24,1 km/h (4 Bft) 100,00 %
10.10.2016 13:06 10,1 C 75 % 1021,7 hPa 0,0 l/m 9,4 km/h (2 Bft) O-NO 69 2 min 0,000 mm 1,4 UV-I 340 W/m 5,9 C 8,1 C 14,5 km/h (3 Bft) 97,87 %
10.10.2016 13:08 10,0 C 77 % 1021,7 hPa 0,0 l/m 13,2 km/h (3 Bft) N-NO 13 0 min 0,000 mm 1,4 UV-I 292 W/m 6,2 C 5,9 C 19,3 km/h (3 Bft) 100,00 %
10.10.2016 13:10 9,8 C 75 % 1021,7 hPa 0,0 l/m 9,1 km/h (2 Bft) NO 47 0 min 0,000 mm 1,4 UV-I 304 W/m 5,6 C 7,9 C 14,5 km/h (3 Bft) 100,00 %
10.10.2016 13:12 9,8 C 76 % 1021,7 hPa 0,0 l/m 7,4 km/h (2 Bft) NO 34 2 min 0,000 mm 1,4 UV-I 326 W/m 5,8 C 9,1 C 12,9 km/h (3 Bft) 95,74 %
10.10.2016 13:14 9,9 C 76 % 1021,7 hPa 0,0 l/m 15,2 km/h (3 Bft) O-SO 103 2 min 0,000 mm 1,4 UV-I 359 W/m 5,9 C 4,9 C 22,5 km/h (4 Bft) 100,00 %
10.10.2016 13:16 9,8 C 73 % 1021,7 hPa 0,0 l/m 15,5 km/h (3 Bft) O-NO 67 2 min 0,000 mm 1,4 UV-I 366 W/m 5,2 C 4,7 C 22,5 km/h (4 Bft) 100,00 %
10.10.2016 13:18 9,8 C 75 % 1021,7 hPa 0,0 l/m 10,9 km/h (2 Bft) NO 43 2 min 0,000 mm 1,5 UV-I 405 W/m 5,6 C 6,9 C 16,1 km/h (3 Bft) 98,08 %
10.10.2016 13:20 9,9 C 75 % 1021,6 hPa 0,0 l/m 10,2 km/h (2 Bft) O-NO 57 2 min 0,000 mm 1,5 UV-I 442 W/m 5,7 C 7,4 C 16,1 km/h (3 Bft) 100,00 %
10.10.2016 13:22 9,9 C 75 % 1021,6 hPa 0,0 l/m 12,4 km/h (3 Bft) O-NO 63 2 min 0,000 mm 1,6 UV-I 450 W/m 5,7 C 6,2 C 16,1 km/h (3 Bft) 100,00 %
10.10.2016 13:24 9,9 C 73 % 1021,6 hPa 0,0 l/m 10,6 km/h (2 Bft) O 85 2 min 0,000 mm 1,6 UV-I 460 W/m 5,3 C 7,1 C 16,1 km/h (3 Bft) 100,00 %
10.10.2016 13:26 9,9 C 74 % 1021,5 hPa 0,0 l/m 9,8 km/h (2 Bft) NO 53 2 min 0,000 mm 1,6 UV-I 464 W/m 5,5 C 7,6 C 16,1 km/h (3 Bft) 100,00 %
10.10.2016 13:28 10,1 C 77 % 1021,4 hPa 0,0 l/m 11,6 km/h (2 Bft) NO 47 2 min 0,000 mm 1,6 UV-I 458 W/m 6,3 C 6,8 C 17,7 km/h (3 Bft) 100,00 %
10.10.2016 13:30 10,1 C 74 % 1021,4 hPa 0,0 l/m 10,8 km/h (2 Bft) O-NO 75 2 min 0,000 mm 1,5 UV-I 439 W/m 5,7 C 7,3 C 19,3 km/h (3 Bft) 100,00 %
10.10.2016 13:32 10,2 C 74 % 1021,4 hPa 0,0 l/m 13,1 km/h (3 Bft) SO 137 2 min 0,000 mm 1,4 UV-I 425 W/m 5,8 C 6,2 C 20,9 km/h (4 Bft) 100,00 %
10.10.2016 13:34 10,1 C 73 % 1021,4 hPa 0,0 l/m 9,7 km/h (2 Bft) SO 134 2 min 0,000 mm 1,4 UV-I 380 W/m 5,5 C 7,9 C 19,3 km/h (3 Bft) 95,74 %
10.10.2016 13:36 10,1 C 75 % 1021,4 hPa 0,0 l/m 6,3 km/h (2 Bft) O 84 2 min 0,000 mm 1,2 UV-I 327 W/m 5,9 C 10,1 C 11,3 km/h (2 Bft) 100,00 %
10.10.2016 13:38 10,1 C 74 % 1021,4 hPa 0,0 l/m 8,1 km/h (2 Bft) O-NO 61 0 min 0,000 mm 1,1 UV-I 290 W/m 5,7 C 8,9 C 12,9 km/h (3 Bft) 100,00 %
10.10.2016 13:40 10,1 C 74 % 1021,4 hPa 0,0 l/m 8,8 km/h (2 Bft) O-NO 69 0 min 0,000 mm 1,1 UV-I 268 W/m 5,7 C 8,4 C 14,5 km/h (3 Bft) 100,00 %
10.10.2016 13:42 9,9 C 73 % 1021,4 hPa 0,0 l/m 8,3 km/h (2 Bft) O-NO 74 0 min 0,000 mm 1,0 UV-I 261 W/m 5,3 C 8,5 C 16,1 km/h (3 Bft) 100,00 %
10.10.2016 13:44 9,9 C 74 % 1021,4 hPa 0,0 l/m 7,9 km/h (2 Bft) SO 129 0 min 0,000 mm 1,0 UV-I 271 W/m 5,5 C 8,8 C 16,1 km/h (3 Bft) 100,00 %
10.10.2016 13:46 9,8 C 74 % 1021,3 hPa 0,0 l/m 7,8 km/h (2 Bft) O-NO 68 2 min 0,000 mm 1,1 UV-I 331 W/m 5,4 C 8,8 C 16,1 km/h (3 Bft) 100,00 %
10.10.2016 13:48 9,8 C 75 % 1021,3 hPa 0,0 l/m 5,7 km/h (1 Bft) O-NO 57 2 min 0,000 mm 1,4 UV-I 450 W/m 5,6 C 9,8 C 12,9 km/h (3 Bft) 98,00 %
10.10.2016 13:50 10,0 C 77 % 1021,3 hPa 0,0 l/m 10,6 km/h (2 Bft) NO 45 2 min 0,000 mm 1,5 UV-I 502 W/m 6,2 C 7,3 C 16,1 km/h (3 Bft) 100,00 %
10.10.2016 13:52 10,1 C 73 % 1021,2 hPa 0,0 l/m 12,0 km/h (2 Bft) NO 55 2 min 0,000 mm 1,4 UV-I 402 W/m 5,5 C 6,6 C 19,3 km/h (3 Bft) 95,74 %
10.10.2016 13:54 10,2 C 75 % 1021,2 hPa 0,0 l/m 8,2 km/h (2 Bft) NO 40 2 min 0,000 mm 1,3 UV-I 337 W/m 6,0 C 8,9 C 12,9 km/h (3 Bft) 100,00 %
10.10.2016 13:56 10,1 C 73 % 1021,2 hPa 0,0 l/m 7,1 km/h (2 Bft) NO 53 2 min 0,000 mm 1,3 UV-I 318 W/m 5,5 C 9,6 C 9,7 km/h (2 Bft) 98,00 %
10.10.2016 13:58 10,1 C 74 % 1021,1 hPa 0,0 l/m 8,5 km/h (2 Bft) O-NO 59 2 min 0,000 mm 1,3 UV-I 311 W/m 5,7 C 8,6 C 12,9 km/h (3 Bft) 100,00 %
10.10.2016 14:00 10,1 C 74 % 1021,1 hPa 0,0 l/m 10,3 km/h (2 Bft) NO 38 2 min 0,203 mm 1,3 UV-I 307 W/m 5,7 C 7,5 C 14,5 km/h (3 Bft) 100,00 %
10.10.2016 14:02 10,1 C 72 % 1021,1 hPa 0,0 l/m 11,2 km/h (2 Bft) O 88 2 min 0,000 mm 1,3 UV-I 306 W/m 5,3 C 7,0 C 19,3 km/h (3 Bft) 100,00 %
10.10.2016 14:04 10,0 C 70 % 1021,1 hPa 0,0 l/m 11,1 km/h (2 Bft) NO 49 2 min 0,000 mm 1,3 UV-I 306 W/m 4,8 C 7,0 C 17,7 km/h (3 Bft) 100,00 %
10.10.2016 14:06 10,0 C 72 % 1021,1 hPa 0,0 l/m 10,1 km/h (2 Bft) O-NO 68 2 min 0,000 mm 1,3 UV-I 312 W/m 5,2 C 7,5 C 16,1 km/h (3 Bft) 100,00 %
10.10.2016 14:08 10,0 C 72 % 1021,0 hPa 0,0 l/m 11,4 km/h (2 Bft) O-NO 64 2 min 0,000 mm 1,3 UV-I 330 W/m 5,2 C 6,8 C 16,1 km/h (3 Bft) 100,00 %
10.10.2016 14:10 10,0 C 71 % 1021,1 hPa 0,0 l/m 13,3 km/h (3 Bft) O 96 2 min 0,000 mm 1,3 UV-I 344 W/m 5,0 C 5,9 C 17,7 km/h (3 Bft) 98,00 %
10.10.2016 14:12 10,0 C 71 % 1021,0 hPa 0,0 l/m 9,4 km/h (2 Bft) O 82 2 min 0,000 mm 1,4 UV-I 395 W/m 5,0 C 8,0 C 14,5 km/h (3 Bft) 100,00 %
10.10.2016 14:14 10,0 C 70 % 1021,0 hPa 0,0 l/m 10,3 km/h (2 Bft) O 97 2 min 0,000 mm 1,4 UV-I 372 W/m 4,8 C 7,4 C 12,9 km/h (3 Bft) 100,00 %
10.10.2016 14:16 10,1 C 71 % 1021,0 hPa 0,0 l/m 8,3 km/h (2 Bft) O-NO 77 2 min 0,000 mm 1,3 UV-I 309 W/m 5,1 C 8,8 C 14,5 km/h (3 Bft) 97,87 %
10.10.2016 14:18 10,1 C 71 % 1020,9 hPa 0,0 l/m 6,0 km/h (2 Bft) O 91 2 min 0,000 mm 1,3 UV-I 291 W/m 5,1 C 10,1 C 9,7 km/h (2 Bft) 95,74 %
10.10.2016 14:20 10,2 C 71 % 1020,9 hPa 0,0 l/m 5,5 km/h (1 Bft) NO 47 0 min 0,000 mm 1,2 UV-I 267 W/m 5,2 C 10,2 C 11,3 km/h (2 Bft) 97,56 %
10.10.2016 14:22 10,2 C 73 % 1020,8 hPa 0,0 l/m 8,9 km/h (2 Bft) O-NO 59 0 min 0,000 mm 1,2 UV-I 256 W/m 5,6 C 8,5 C 14,5 km/h (3 Bft) 92,68 %
10.10.2016 14:24 10,3 C 71 % 1020,9 hPa 0,0 l/m 11,7 km/h (2 Bft) O 97 0 min 0,000 mm 1,1 UV-I 248 W/m 5,3 C 7,0 C 16,1 km/h (3 Bft) 98,00 %
10.10.2016 14:26 10,2 C 70 % 1020,9 hPa 0,0 l/m 9,2 km/h (2 Bft) O-NO 71 2 min 0,000 mm 1,2 UV-I 341 W/m 5,0 C 8,3 C 14,5 km/h (3 Bft) 97,87 %
10.10.2016 14:28 10,2 C 70 % 1020,9 hPa 0,0 l/m 11,5 km/h (2 Bft) O-NO 61 2 min 0,000 mm 1,3 UV-I 363 W/m 5,0 C 7,0 C 17,7 km/h (3 Bft) 97,87 %
10.10.2016 14:30 10,2 C 70 % 1020,8 hPa 0,0 l/m 10,1 km/h (2 Bft) O 83 2 min 0,000 mm 1,3 UV-I 365 W/m 5,0 C 7,8 C 17,7 km/h (3 Bft) 95,74 %
10.10.2016 14:32 10,3 C 69 % 1020,8 hPa 0,0 l/m 14,4 km/h (3 Bft) NO 55 2 min 0,000 mm 1,3 UV-I 328 W/m 4,9 C 5,8 C 19,3 km/h (3 Bft) 92,00 %
10.10.2016 14:34 10,3 C 70 % 1020,8 hPa 0,0 l/m 9,5 km/h (2 Bft) O-NO 68 2 min 0,000 mm 1,3 UV-I 335 W/m 5,1 C 8,2 C 17,7 km/h (3 Bft) 97,92 %
10.10.2016 14:36 10,4 C 71 % 1020,7 hPa 0,0 l/m 13,3 km/h (3 Bft) NO 36 2 min 0,000 mm 1,3 UV-I 335 W/m 5,4 C 6,4 C 19,3 km/h (3 Bft) 95,83 %
10.10.2016 14:38 10,4 C 72 % 1020,7 hPa 0,0 l/m 11,0 km/h (2 Bft) NO 35 2 min 0,000 mm 1,3 UV-I 456 W/m 5,6 C 7,5 C 14,5 km/h (3 Bft) 98,00 %
10.10.2016 14:40 10,4 C 71 % 1020,7 hPa 0,0 l/m 8,9 km/h (2 Bft) O-NO 60 2 min 0,000 mm 1,3 UV-I 482 W/m 5,4 C 8,7 C 16,1 km/h (3 Bft) 97,37 %
10.10.2016 14:42 10,6 C 72 % 1020,6 hPa 0,0 l/m 11,0 km/h (2 Bft) NO 49 2 min 0,000 mm 1,3 UV-I 416 W/m 5,8 C 7,7 C 17,7 km/h (3 Bft) 97,87 %
10.10.2016 14:44 10,7 C 70 % 1020,7 hPa 0,0 l/m 12,3 km/h (3 Bft) NO 44 2 min 0,000 mm 1,3 UV-I 378 W/m 5,5 C 7,2 C 16,1 km/h (3 Bft) 97,87 %
10.10.2016 14:46 10,6 C 71 % 1020,6 hPa 0,0 l/m 7,4 km/h (2 Bft) NO 34 2 min 0,000 mm 1,2 UV-I 374 W/m 5,6 C 9,9 C 12,9 km/h (3 Bft) 98,00 %
10.10.2016 14:48 10,7 C 72 % 1020,6 hPa 0,0 l/m 10,0 km/h (2 Bft) O-NO 69 2 min 0,000 mm 1,2 UV-I 359 W/m 5,9 C 8,4 C 16,1 km/h (3 Bft) 97,87 %
10.10.2016 14:50 10,7 C 70 % 1020,5 hPa 0,0 l/m 9,3 km/h (2 Bft) O-NO 73 2 min 0,000 mm 1,2 UV-I 380 W/m 5,5 C 8,8 C 14,5 km/h (3 Bft) 97,87 %
10.10.2016 14:52 10,7 C 70 % 1020,5 hPa 0,0 l/m 9,2 km/h (2 Bft) NO 49 2 min 0,000 mm 1,2 UV-I 387 W/m 5,5 C 8,8 C 17,7 km/h (3 Bft) 94,00 %
10.10.2016 14:54 10,7 C 72 % 1020,4 hPa 0,0 l/m 10,6 km/h (2 Bft) NO 48 2 min 0,000 mm 1,2 UV-I 429 W/m 5,9 C 8,0 C 17,7 km/h (3 Bft) 100,00 %
10.10.2016 14:56 10,8 C 71 % 1020,4 hPa 0,0 l/m 11,0 km/h (2 Bft) N-NO 27 2 min 0,000 mm 1,3 UV-I 478 W/m 5,8 C 7,9 C 17,7 km/h (3 Bft) 100,00 %
10.10.2016 14:58 11,0 C 71 % 1020,4 hPa 0,0 l/m 13,5 km/h (3 Bft) O-NO 65 2 min 0,000 mm 1,3 UV-I 497 W/m 5,9 C 7,0 C 20,9 km/h (4 Bft) 97,87 %
10.10.2016 15:00 11,1 C 70 % 1020,4 hPa 0,0 l/m 12,3 km/h (3 Bft) O-NO 65 2 min 0,203 mm 1,3 UV-I 496 W/m 5,8 C 7,6 C 19,3 km/h (3 Bft) 100,00 %
10.10.2016 15:02 11,1 C 67 % 1020,4 hPa 0,0 l/m 13,2 km/h (3 Bft) N-NO 30 2 min 0,000 mm 1,2 UV-I 464 W/m 5,2 C 7,2 C 20,9 km/h (4 Bft) 97,87 %
10.10.2016 15:04 11,1 C 66 % 1020,4 hPa 0,0 l/m 14,5 km/h (3 Bft) N-NO 28 2 min 0,000 mm 1,2 UV-I 457 W/m 5,0 C 6,7 C 22,5 km/h (4 Bft) 100,00 %
10.10.2016 15:06 11,0 C 68 % 1020,3 hPa 0,0 l/m 13,1 km/h (3 Bft) O-NO 63 2 min 0,000 mm 1,2 UV-I 463 W/m 5,3 C 7,2 C 22,5 km/h (4 Bft) 95,74 %
10.10.2016 15:08 10,9 C 69 % 1020,4 hPa 0,0 l/m 12,5 km/h (3 Bft) O-NO 69 2 min 0,000 mm 1,2 UV-I 447 W/m 5,4 C 7,3 C 17,7 km/h (3 Bft) 100,00 %
10.10.2016 15:10 11,0 C 68 % 1020,4 hPa 0,0 l/m 10,1 km/h (2 Bft) NO 42 2 min 0,000 mm 1,1 UV-I 436 W/m 5,3 C 8,6 C 14,5 km/h (3 Bft) 98,41 %
10.10.2016 15:12 11,1 C 70 % 1020,3 hPa 0,0 l/m 11,2 km/h (2 Bft) N-NO 16 2 min 0,000 mm 1,1 UV-I 444 W/m 5,8 C 8,2 C 16,1 km/h (3 Bft) 100,00 %
10.10.2016 15:14 11,1 C 72 % 1020,3 hPa 0,0 l/m 11,6 km/h (2 Bft) N-NO 26 2 min 0,000 mm 1,1 UV-I 451 W/m 6,2 C 8,0 C 19,3 km/h (3 Bft) 100,00 %
10.10.2016 15:16 11,2 C 67 % 1020,3 hPa 0,0 l/m 11,0 km/h (2 Bft) O-NO 60 2 min 0,000 mm 1,1 UV-I 451 W/m 5,3 C 8,4 C 17,7 km/h (3 Bft) 100,00 %
10.10.2016 15:18 11,2 C 67 % 1020,4 hPa 0,0 l/m 14,9 km/h (3 Bft) NO 42 2 min 0,000 mm 1,1 UV-I 444 W/m 5,3 C 6,6 C 20,9 km/h (4 Bft) 100,00 %
10.10.2016 15:20 11,1 C 67 % 1020,3 hPa 0,0 l/m 12,3 km/h (3 Bft) NO 44 2 min 0,000 mm 1,1 UV-I 425 W/m 5,2 C 7,6 C 16,1 km/h (3 Bft) 100,00 %
10.10.2016 15:22 11,1 C 68 % 1020,3 hPa 0,0 l/m 14,3 km/h (3 Bft) NO 44 2 min 0,000 mm 1,1 UV-I 440 W/m 5,4 C 6,8 C 19,3 km/h (3 Bft) 100,00 %
10.10.2016 15:24 11,1 C 66 % 1020,3 hPa 0,0 l/m 9,5 km/h (2 Bft) NO 51 2 min 0,000 mm 1,0 UV-I 438 W/m 5,0 C 9,1 C 17,7 km/h (3 Bft) 100,00 %
10.10.2016 15:26 11,1 C 66 % 1020,3 hPa 0,0 l/m 8,9 km/h (2 Bft) NO 42 2 min 0,000 mm 1,0 UV-I 439 W/m 5,0 C 9,4 C 14,5 km/h (3 Bft) 100,00 %
10.10.2016 15:28 11,1 C 68 % 1020,3 hPa 0,0 l/m 7,8 km/h (2 Bft) NO 41 2 min 0,000 mm 1,0 UV-I 448 W/m 5,4 C 10,1 C 14,5 km/h (3 Bft) 97,87 %
10.10.2016 15:30 11,2 C 69 % 1020,3 hPa 0,0 l/m 17,6 km/h (3 Bft) N-NO 23 2 min 0,000 mm 1,0 UV-I 455 W/m 5,7 C 5,6 C 22,5 km/h (4 Bft) 100,00 %
10.10.2016 15:32 11,2 C 71 % 1020,3 hPa 0,0 l/m 13,9 km/h (3 Bft) NO 52 2 min 0,000 mm 0,9 UV-I 433 W/m 6,1 C 7,0 C 22,5 km/h (4 Bft) 100,00 %
10.10.2016 15:34 11,1 C 66 % 1020,2 hPa 0,0 l/m 14,6 km/h (3 Bft) NO 50 2 min 0,000 mm 0,9 UV-I 378 W/m 5,0 C 6,6 C 24,1 km/h (4 Bft) 97,87 %
10.10.2016 15:36 11,0 C 66 % 1020,2 hPa 0,0 l/m 13,5 km/h (3 Bft) O-NO 66 2 min 0,000 mm 0,8 UV-I 292 W/m 4,9 C 7,0 C 24,1 km/h (4 Bft) 100,00 %
10.10.2016 15:38 10,9 C 67 % 1020,2 hPa 0,0 l/m 14,1 km/h (3 Bft) N-NO 22 2 min 0,000 mm 0,9 UV-I 363 W/m 5,0 C 6,6 C 22,5 km/h (4 Bft) 97,87 %
10.10.2016 15:40 10,9 C 72 % 1020,2 hPa 0,0 l/m 16,9 km/h (3 Bft) NO 51 2 min 0,000 mm 0,8 UV-I 334 W/m 6,1 C 5,5 C 24,1 km/h (4 Bft) 97,87 %
10.10.2016 15:42 10,8 C 72 % 1020,2 hPa 0,0 l/m 14,4 km/h (3 Bft) NO 38 2 min 0,000 mm 0,8 UV-I 299 W/m 6,0 C 6,4 C 22,5 km/h (4 Bft) 100,00 %
10.10.2016 15:44 10,6 C 72 % 1020,2 hPa 0,0 l/m 18,5 km/h (3 Bft) NO 47 2 min 0,000 mm 0,7 UV-I 230 W/m 5,8 C 4,6 C 24,1 km/h (4 Bft) 97,87 %
10.10.2016 15:46 10,4 C 74 % 1020,1 hPa 0,0 l/m 14,3 km/h (3 Bft) NO 46 0 min 0,000 mm 0,7 UV-I 180 W/m 6,0 C 5,9 C 20,9 km/h (4 Bft) 100,00 %
10.10.2016 15:48 10,1 C 74 % 1020,2 hPa 0,0 l/m 16,1 km/h (3 Bft) NO 40 0 min 0,000 mm 0,6 UV-I 169 W/m 5,7 C 4,8 C 25,7 km/h (4 Bft) 97,87 %
10.10.2016 15:50 10,0 C 74 % 1020,3 hPa 0,0 l/m 11,0 km/h (2 Bft) O-NO 57 0 min 0,000 mm 0,6 UV-I 174 W/m 5,6 C 7,0 C 17,7 km/h (3 Bft) 97,87 %
10.10.2016 15:52 9,9 C 75 % 1020,3 hPa 0,0 l/m 12,0 km/h (2 Bft) O 79 0 min 0,000 mm 0,6 UV-I 159 W/m 5,7 C 6,4 C 22,5 km/h (4 Bft) 97,87 %
10.10.2016 15:54 9,8 C 76 % 1020,3 hPa 0,0 l/m 10,1 km/h (2 Bft) N 350 0 min 0,000 mm 0,6 UV-I 173 W/m 5,8 C 7,3 C 22,5 km/h (4 Bft) 100,00 %
10.10.2016 15:56 9,7 C 77 % 1020,2 hPa 0,0 l/m 14,2 km/h (3 Bft) N 350 0 min 0,000 mm 0,5 UV-I 148 W/m 5,9 C 5,1 C 24,1 km/h (4 Bft) 100,00 %
10.10.2016 15:58 9,6 C 77 % 1020,3 hPa 0,0 l/m 14,1 km/h (3 Bft) N 5 0 min 0,000 mm 0,5 UV-I 118 W/m 5,8 C 5,0 C 19,3 km/h (3 Bft) 100,00 %
10.10.2016 16:00 9,5 C 77 % 1020,2 hPa 0,0 l/m 16,9 km/h (3 Bft) N-NO 23 0 min 0,000 mm 0,5 UV-I 107 W/m 5,7 C 3,8 C 27,4 km/h (4 Bft) 93,62 %
10.10.2016 16:02 9,3 C 76 % 1020,2 hPa 0,0 l/m 12,5 km/h (3 Bft) N-NO 29 0 min 0,204 mm 0,5 UV-I 109 W/m 5,3 C 5,5 C 25,7 km/h (4 Bft) 97,87 %
10.10.2016 16:04 9,2 C 77 % 1020,2 hPa 0,0 l/m 11,5 km/h (2 Bft) N 10 0 min 0,000 mm 0,5 UV-I 123 W/m 5,4 C 5,9 C 17,7 km/h (3 Bft) 95,74 %
10.10.2016 16:06 9,2 C 78 % 1020,2 hPa 0,0 l/m 13,2 km/h (3 Bft) N-NO 30 2 min 0,000 mm 0,5 UV-I 228 W/m 5,6 C 5,0 C 24,1 km/h (4 Bft) 97,87 %
10.10.2016 16:08 9,2 C 78 % 1020,1 hPa 0,0 l/m 9,6 km/h (2 Bft) N 11 2 min 0,000 mm 0,5 UV-I 247 W/m 5,6 C 7,0 C 22,5 km/h (4 Bft) 98,00 %
10.10.2016 16:10 9,3 C 79 % 1020,2 hPa 0,0 l/m 7,9 km/h (2 Bft) N 9 2 min 0,000 mm 0,5 UV-I 281 W/m 5,8 C 8,2 C 14,5 km/h (3 Bft) 95,74 %
10.10.2016 16:12 9,4 C 79 % 1020,2 hPa 0,0 l/m 11,5 km/h (2 Bft) NO 49 2 min 0,000 mm 0,5 UV-I 270 W/m 5,9 C 6,1 C 19,3 km/h (3 Bft) 97,87 %
10.10.2016 16:14 9,5 C 78 % 1020,2 hPa 0,0 l/m 12,5 km/h (3 Bft) N 355 2 min 0,000 mm 0,4 UV-I 234 W/m 5,9 C 5,7 C 19,3 km/h (3 Bft) 95,74 %
10.10.2016 16:16 9,6 C 78 % 1020,2 hPa 0,0 l/m 11,9 km/h (2 Bft) N-NO 16 2 min 0,000 mm 0,0 UV-I 220 W/m 6,0 C 6,1 C 22,5 km/h (4 Bft) 97,87 %
10.10.2016 16:18 9,7 C 77 % 1020,1 hPa 0,0 l/m 14,3 km/h (3 Bft) S-SO 155 2 min 0,000 mm 0,0 UV-I 240 W/m 5,9 C 5,1 C 22,5 km/h (4 Bft) 97,87 %
10.10.2016 16:20 9,8 C 78 % 1020,1 hPa 0,0 l/m 11,5 km/h (2 Bft) N-NO 13 2 min 0,000 mm 0,0 UV-I 352 W/m 6,1 C 6,5 C 22,5 km/h (4 Bft) 93,62 %
10.10.2016 16:22 9,8 C 77 % 1020,1 hPa 0,0 l/m 12,4 km/h (3 Bft) NO 55 2 min 0,000 mm 0,0 UV-I 356 W/m 6,0 C 6,1 C 19,3 km/h (3 Bft) 97,56 %
10.10.2016 16:24 9,9 C 77 % 1020,1 hPa 0,0 l/m 12,5 km/h (3 Bft) N 9 2 min 0,000 mm 0,0 UV-I 372 W/m 6,1 C 6,1 C 17,7 km/h (3 Bft) 97,87 %
10.10.2016 16:26 10,1 C 76 % 1020,2 hPa 0,0 l/m 18,7 km/h (3 Bft) NO 42 2 min 0,000 mm 0,0 UV-I 326 W/m 6,1 C 3,9 C 27,4 km/h (4 Bft) 97,87 %
10.10.2016 16:28 10,1 C 76 % 1020,2 hPa 0,0 l/m 16,4 km/h (3 Bft) N-NO 30 2 min 0,000 mm 0,0 UV-I 227 W/m 6,1 C 4,7 C 22,5 km/h (4 Bft) 97,87 %
10.10.2016 16:30 9,9 C 78 % 1020,1 hPa 0,0 l/m 16,3 km/h (3 Bft) NO 44 2 min 0,000 mm 0,0 UV-I 171 W/m 6,2 C 4,5 C 24,1 km/h (4 Bft) 100,00 %
10.10.2016 16:32 9,7 C 77 % 1020,2 hPa 0,0 l/m 20,0 km/h (4 Bft) N 9 2 min 0,000 mm 0,0 UV-I 171 W/m 5,9 C 2,9 C 27,4 km/h (4 Bft) 95,83 %
10.10.2016 16:34 9,6 C 79 % 1020,1 hPa 0,0 l/m 14,1 km/h (3 Bft) N-NO 24 2 min 0,000 mm 0,0 UV-I 184 W/m 6,1 C 5,0 C 22,5 km/h (4 Bft) 97,87 %
10.10.2016 16:36 9,4 C 80 % 1020,1 hPa 0,0 l/m 13,3 km/h (3 Bft) NO 34 2 min 0,000 mm 0,0 UV-I 216 W/m 6,1 C 5,2 C 20,9 km/h (4 Bft) 97,87 %
10.10.2016 16:38 9,4 C 80 % 1020,1 hPa 0,0 l/m 16,9 km/h (3 Bft) O-NO 65 2 min 0,000 mm 0,0 UV-I 286 W/m 6,1 C 3,6 C 24,1 km/h (4 Bft) 100,00 %
10.10.2016 16:40 9,4 C 78 % 1020,1 hPa 0,0 l/m 19,7 km/h (3 Bft) O-NO 77 2 min 0,000 mm 0,0 UV-I 260 W/m 5,8 C 2,6 C 27,4 km/h (4 Bft) 100,00 %
10.10.2016 16:42 9,4 C 78 % 1020,1 hPa 0,0 l/m 16,1 km/h (3 Bft) O-NO 67 2 min 0,000 mm 0,0 UV-I 226 W/m 5,8 C 3,9 C 25,7 km/h (4 Bft) 100,00 %
10.10.2016 16:44 9,3 C 76 % 1020,1 hPa 0,0 l/m 16,2 km/h (3 Bft) O-NO 75 2 min 0,000 mm 0,0 UV-I 171 W/m 5,3 C 3,8 C 24,1 km/h (4 Bft) 97,87 %
10.10.2016 16:46 9,2 C 76 % 1020,1 hPa 0,0 l/m 17,2 km/h (3 Bft) O-NO 65 2 min 0,000 mm 0,0 UV-I 152 W/m 5,2 C 3,3 C 24,1 km/h (4 Bft) 100,00 %
10.10.2016 16:48 9,1 C 76 % 1020,1 hPa 0,0 l/m 16,5 km/h (3 Bft) NO 35 2 min 0,000 mm 0,0 UV-I 143 W/m 5,1 C 3,4 C 22,5 km/h (4 Bft) 95,12 %
10.10.2016 16:50 9,0 C 76 % 1020,1 hPa 0,0 l/m 15,7 km/h (3 Bft) O-NO 73 2 min 0,000 mm 0,0 UV-I 134 W/m 5,0 C 3,6 C 22,5 km/h (4 Bft) 100,00 %
10.10.2016 16:52 8,9 C 76 % 1020,1 hPa 0,0 l/m 16,1 km/h (3 Bft) NO 48 0 min 0,000 mm 0,0 UV-I 125 W/m 4,9 C 3,3 C 20,9 km/h (4 Bft) 100,00 %
10.10.2016 16:54 8,9 C 77 % 1020,0 hPa 0,0 l/m 13,5 km/h (3 Bft) NO 44 0 min 0,000 mm 0,0 UV-I 115 W/m 5,1 C 4,5 C 19,3 km/h (3 Bft) 97,87 %
10.10.2016 16:56 8,8 C 76 % 1020,1 hPa 0,0 l/m 14,5 km/h (3 Bft) NO 44 0 min 0,000 mm 0,0 UV-I 102 W/m 4,8 C 3,9 C 20,9 km/h (4 Bft) 100,00 %
10.10.2016 16:58 8,7 C 77 % 1020,0 hPa 0,0 l/m 12,1 km/h (2 Bft) O-NO 74 0 min 0,000 mm 0,0 UV-I 89 W/m 4,9 C 5,0 C 17,7 km/h (3 Bft) 95,74 %
10.10.2016 17:00 8,7 C 77 % 1020,0 hPa 0,0 l/m 8,4 km/h (2 Bft) NO 41 0 min 0,127 mm 0,0 UV-I 80 W/m 4,9 C 7,2 C 11,3 km/h (2 Bft) 100,00 %
10.10.2016 17:02 8,6 C 78 % 1020,0 hPa 0,0 l/m 7,3 km/h (2 Bft) O-NO 63 0 min 0,000 mm 0,0 UV-I 103 W/m 5,0 C 7,9 C 9,7 km/h (2 Bft) 97,87 %
10.10.2016 17:04 8,7 C 77 % 1020,0 hPa 0,0 l/m 6,9 km/h (2 Bft) NO 49 2 min 0,000 mm 0,0 UV-I 117 W/m 4,9 C 8,3 C 9,7 km/h (2 Bft) 100,00 %
10.10.2016 17:06 8,7 C 76 % 1020,0 hPa 0,0 l/m 9,0 km/h (2 Bft) NO 41 2 min 0,000 mm 0,0 UV-I 115 W/m 4,7 C 6,8 C 14,5 km/h (3 Bft) 100,00 %
10.10.2016 17:08 8,7 C 77 % 1019,9 hPa 0,0 l/m 8,7 km/h (2 Bft) NO 38 0 min 0,000 mm 0,0 UV-I 68 W/m 4,9 C 7,0 C 12,9 km/h (3 Bft) 97,87 %
10.10.2016 17:10 8,7 C 76 % 1020,0 hPa 0,0 l/m 10,2 km/h (2 Bft) O-NO 73 0 min 0,000 mm 0,0 UV-I 46 W/m 4,7 C 6,0 C 16,1 km/h (3 Bft) 97,87 %
10.10.2016 17:12 8,7 C 76 % 1020,0 hPa 0,0 l/m 8,5 km/h (2 Bft) NO 48 0 min 0,000 mm 0,0 UV-I 41 W/m 4,7 C 7,1 C 14,5 km/h (3 Bft) 100,00 %
10.10.2016 17:14 8,6 C 77 % 1020,0 hPa 0,0 l/m 7,5 km/h (2 Bft) NO 54 0 min 0,000 mm 0,0 UV-I 37 W/m 4,8 C 7,8 C 11,3 km/h (2 Bft) 100,00 %
10.10.2016 17:16 8,6 C 77 % 1020,0 hPa 0,0 l/m 7,5 km/h (2 Bft) NO 56 0 min 0,000 mm 0,0 UV-I 35 W/m 4,8 C 7,8 C 14,5 km/h (3 Bft) 100,00 %
10.10.2016 17:18 8,5 C 77 % 1020,0 hPa 0,0 l/m 6,5 km/h (2 Bft) O-NO 65 0 min 0,000 mm 0,0 UV-I 36 W/m 4,7 C 8,4 C 8,0 km/h (2 Bft) 97,87 %
10.10.2016 17:20 8,4 C 77 % 1020,0 hPa 0,0 l/m 8,8 km/h (2 Bft) O-NO 76 0 min 0,000 mm 0,0 UV-I 39 W/m 4,6 C 6,6 C 14,5 km/h (3 Bft) 100,00 %
10.10.2016 17:22 8,4 C 77 % 1020,0 hPa 0,0 l/m 9,1 km/h (2 Bft) NO 56 0 min 0,000 mm 0,0 UV-I 40 W/m 4,6 C 6,4 C 12,9 km/h (3 Bft) 100,00 %
10.10.2016 17:24 8,4 C 76 % 1020,0 hPa 0,0 l/m 10,3 km/h (2 Bft) O-NO 74 0 min 0,000 mm 0,0 UV-I 40 W/m 4,4 C 5,6 C 14,5 km/h (3 Bft) 100,00 %
10.10.2016 17:26 8,3 C 77 % 1020,0 hPa 0,0 l/m 6,4 km/h (2 Bft) O-NO 60 0 min 0,000 mm 0,0 UV-I 40 W/m 4,5 C 8,3 C 9,7 km/h (2 Bft) 100,00 %
10.10.2016 17:28 8,3 C 77 % 1020,0 hPa 0,0 l/m 8,9 km/h (2 Bft) NO 55 0 min 0,000 mm 0,0 UV-I 38 W/m 4,5 C 6,4 C 14,5 km/h (3 Bft) 97,87 %
10.10.2016 17:30 8,3 C 77 % 1020,0 hPa 0,0 l/m 6,2 km/h (2 Bft) O-NO 57 0 min 0,000 mm 0,0 UV-I 36 W/m 4,5 C 8,3 C 9,7 km/h (2 Bft) 100,00 %
10.10.2016 17:32 8,3 C 78 % 1020,0 hPa 0,0 l/m 5,0 km/h (1 Bft) NO 55 0 min 0,000 mm 0,0 UV-I 35 W/m 4,7 C 8,3 C 8,0 km/h (2 Bft) 100,00 %
10.10.2016 17:34 8,3 C 78 % 1020,0 hPa 0,0 l/m 5,0 km/h (1 Bft) NO 48 0 min 0,000 mm 0,0 UV-I 34 W/m 4,7 C 8,3 C 9,7 km/h (2 Bft) 100,00 %
10.10.2016 17:36 8,3 C 79 % 1020,0 hPa 0,0 l/m 4,8 km/h (1 Bft) NO 40 0 min 0,000 mm 0,0 UV-I 32 W/m 4,9 C 8,3 C 9,7 km/h (2 Bft) 100,00 %
10.10.2016 17:38 8,2 C 80 % 1020,0 hPa 0,0 l/m 6,1 km/h (2 Bft) NO 44 0 min 0,000 mm 0,0 UV-I 30 W/m 5,0 C 8,2 C 9,7 km/h (2 Bft) 100,00 %
10.10.2016 17:40 8,2 C 79 % 1020,0 hPa 0,0 l/m 5,1 km/h (1 Bft) NO 41 0 min 0,000 mm 0,0 UV-I 28 W/m 4,8 C 8,2 C 9,7 km/h (2 Bft) 100,00 %
10.10.2016 17:42 8,2 C 81 % 1020,0 hPa 0,0 l/m 4,9 km/h (1 Bft) NO 44 0 min 0,000 mm 0,0 UV-I 27 W/m 5,1 C 8,2 C 8,0 km/h (2 Bft) 95,74 %
10.10.2016 17:44 8,1 C 81 % 1020,0 hPa 0,0 l/m 2,9 km/h (1 Bft) NO 44 0 min 0,000 mm 0,0 UV-I 26 W/m 5,0 C 8,1 C 4,8 km/h (1 Bft) 100,00 %
10.10.2016 17:46 8,0 C 81 % 1020,0 hPa 0,0 l/m 3,6 km/h (1 Bft) NO 44 0 min 0,000 mm 0,0 UV-I 26 W/m 4,9 C 8,0 C 4,8 km/h (1 Bft) 97,87 %
10.10.2016 17:48 7,9 C 81 % 1020,0 hPa 0,0 l/m 2,0 km/h (1 Bft) NO 44 0 min 0,000 mm 0,0 UV-I 28 W/m 4,8 C 7,9 C 3,2 km/h (1 Bft) 97,87 %
10.10.2016 17:50 7,9 C 82 % 1020,0 hPa 0,0 l/m 4,2 km/h (1 Bft) O-NO 60 0 min 0,000 mm 0,0 UV-I 30 W/m 5,0 C 7,9 C 6,4 km/h (2 Bft) 100,00 %
10.10.2016 17:52 7,9 C 82 % 1020,0 hPa 0,0 l/m 2,3 km/h (1 Bft) O-NO 60 0 min 0,000 mm 0,0 UV-I 32 W/m 5,0 C 7,9 C 3,2 km/h (1 Bft) 97,87 %
10.10.2016 17:54 7,9 C 81 % 1020,0 hPa 0,0 l/m 1,9 km/h (1 Bft) O-NO 60 0 min 0,000 mm 0,0 UV-I 32 W/m 4,8 C 7,9 C 3,2 km/h (1 Bft) 100,00 %
10.10.2016 17:56 7,9 C 81 % 1019,9 hPa 0,0 l/m 2,8 km/h (1 Bft) O-NO 59 0 min 0,000 mm 0,0 UV-I 32 W/m 4,8 C 7,9 C 4,8 km/h (1 Bft) 94,74 %
10.10.2016 17:58 7,9 C 82 % 1020,0 hPa 0,0 l/m 3,4 km/h (1 Bft) O-NO 59 0 min 0,000 mm 0,0 UV-I 30 W/m 5,0 C 7,9 C 4,8 km/h (1 Bft) 96,00 %
10.10.2016 18:00 7,9 C 82 % 1019,9 hPa 0,0 l/m 3,8 km/h (1 Bft) O-NO 59 0 min 0,000 mm 0,0 UV-I 29 W/m 5,0 C 7,9 C 4,8 km/h (1 Bft) 93,62 %
10.10.2016 18:02 7,9 C 83 % 1020,0 hPa 0,0 l/m 3,3 km/h (1 Bft) O-NO 59 0 min 0,025 mm 0,0 UV-I 26 W/m 5,2 C 7,9 C 4,8 km/h (1 Bft) 97,87 %
10.10.2016 18:04 7,9 C 83 % 1020,0 hPa 0,0 l/m 4,3 km/h (1 Bft) O-NO 65 2 min 0,000 mm 0,0 UV-I 25 W/m 5,2 C 7,9 C 6,4 km/h (2 Bft) 97,87 %
10.10.2016 18:06 7,9 C 83 % 1020,0 hPa 0,0 l/m 2,8 km/h (1 Bft) O-NO 65 2 min 0,000 mm 0,0 UV-I 22 W/m 5,2 C 7,9 C 4,8 km/h (1 Bft) 97,96 %
10.10.2016 18:08 7,8 C 83 % 1020,0 hPa 0,0 l/m 2,1 km/h (1 Bft) O-NO 76 2 min 0,000 mm 0,0 UV-I 20 W/m 5,1 C 7,8 C 4,8 km/h (1 Bft) 97,87 %
10.10.2016 18:10 7,8 C 83 % 1019,9 hPa 0,0 l/m 2,6 km/h (1 Bft) O 94 2 min 0,000 mm 0,0 UV-I 19 W/m 5,1 C 7,8 C 4,8 km/h (1 Bft) 95,74 %
10.10.2016 18:12 7,8 C 83 % 1019,9 hPa 0,0 l/m 3,2 km/h (1 Bft) O-SO 118 2 min 0,000 mm 0,0 UV-I 17 W/m 5,1 C 7,8 C 6,4 km/h (2 Bft) 97,87 %
10.10.2016 18:14 7,8 C 83 % 1020,0 hPa 0,0 l/m 3,7 km/h (1 Bft) O-NO 76 0 min 0,000 mm 0,0 UV-I 16 W/m 5,1 C 7,8 C 4,8 km/h (1 Bft) 95,74 %
10.10.2016 18:16 7,7 C 83 % 1019,9 hPa 0,0 l/m 3,2 km/h (1 Bft) O 85 0 min 0,000 mm 0,0 UV-I 14 W/m 5,0 C 7,7 C 6,4 km/h (2 Bft) 95,74 %
10.10.2016 18:18 7,7 C 83 % 1019,9 hPa 0,0 l/m 4,4 km/h (1 Bft) O 98 0 min 0,000 mm 0,0 UV-I 12 W/m 5,0 C 7,7 C 6,4 km/h (2 Bft) 97,87 %
10.10.2016 18:20 7,7 C 84 % 1020,0 hPa 0,0 l/m 3,3 km/h (1 Bft) O 98 0 min 0,000 mm 0,0 UV-I 11 W/m 5,2 C 7,7 C 4,8 km/h (1 Bft) 97,87 %
10.10.2016 18:22 7,7 C 84 % 1020,0 hPa 0,0 l/m 2,7 km/h (1 Bft) O 98 0 min 0,000 mm 0,0 UV-I 9 W/m 5,2 C 7,7 C 4,8 km/h (1 Bft) 97,87 %
10.10.2016 18:24 7,6 C 85 % 1020,1 hPa 0,0 l/m 2,4 km/h (1 Bft) O 98 0 min 0,000 mm 0,0 UV-I 8 W/m 5,2 C 7,6 C 4,8 km/h (1 Bft) 97,87 %
10.10.2016 18:26 7,6 C 84 % 1020,1 hPa 0,0 l/m 1,9 km/h (1 Bft) O 98 0 min 0,000 mm 0,0 UV-I 7 W/m 5,1 C 7,6 C 3,2 km/h (1 Bft) 98,00 %
10.10.2016 18:28 7,6 C 84 % 1020,1 hPa 0,0 l/m 2,1 km/h (1 Bft) O 98 0 min 0,000 mm 0,0 UV-I 7 W/m 5,1 C 7,6 C 3,2 km/h (1 Bft) 97,87 %
10.10.2016 18:30 7,6 C 84 % 1020,1 hPa 0,0 l/m 0,5 km/h (0 Bft) O 98 0 min 0,000 mm 0,0 UV-I 3 W/m 5,1 C 7,6 C 1,6 km/h (1 Bft) 100,00 %
10.10.2016 18:32 7,6 C 86 % 1020,1 hPa 0,0 l/m 0,0 km/h (0 Bft) O 98 0 min 0,000 mm 0,0 UV-I 0 W/m 5,4 C 7,6 C 0,0 km/h (0 Bft) 100,00 %
10.10.2016 18:34 7,5 C 87 % 1020,1 hPa 0,0 l/m 0,0 km/h (0 Bft) O 98 0 min 0,000 mm 0,0 UV-I 0 W/m 5,5 C 7,5 C 1,6 km/h (1 Bft) 95,74 %
10.10.2016 18:36 7,4 C 86 % 1020,1 hPa 0,0 l/m 0,0 km/h (0 Bft) O 98 0 min 0,000 mm 0,0 UV-I 0 W/m 5,2 C 7,4 C 0,0 km/h (0 Bft) 100,00 %
10.10.2016 18:38 7,4 C 86 % 1020,1 hPa 0,0 l/m 0,0 km/h (0 Bft) O 98 0 min 0,000 mm 0,0 UV-I 0 W/m 5,2 C 7,4 C 0,0 km/h (0 Bft) 100,00 %
10.10.2016 18:40 7,4 C 86 % 1020,1 hPa 0,0 l/m 0,0 km/h (0 Bft) O 98 0 min 0,000 mm 0,0 UV-I 0 W/m 5,2 C 7,4 C 0,0 km/h (0 Bft) 97,87 %
10.10.2016 18:42 7,4 C 86 % 1020,1 hPa 0,0 l/m 0,2 km/h (0 Bft) O 98 0 min 0,000 mm 0,0 UV-I 0 W/m 5,2 C 7,4 C 1,6 km/h (1 Bft) 97,87 %
10.10.2016 18:44 7,4 C 86 % 1020,1 hPa 0,0 l/m 1,5 km/h (1 Bft) O 98 0 min 0,000 mm 0,0 UV-I 0 W/m 5,2 C 7,4 C 3,2 km/h (1 Bft) 100,00 %
10.10.2016 18:46 7,3 C 87 % 1020,1 hPa 0,0 l/m 1,2 km/h (1 Bft) O 98 0 min 0,000 mm 0,0 UV-I 0 W/m 5,3 C 7,3 C 3,2 km/h (1 Bft) 100,00 %
10.10.2016 18:48 7,4 C 87 % 1020,1 hPa 0,0 l/m 0,0 km/h (0 Bft) O 98 0 min 0,000 mm 0,0 UV-I 0 W/m 5,4 C 7,4 C 1,6 km/h (1 Bft) 100,00 %
10.10.2016 18:50 7,4 C 87 % 1020,1 hPa 0,0 l/m 0,0 km/h (0 Bft) O 98 0 min 0,000 mm 0,0 UV-I 0 W/m 5,4 C 7,4 C 0,0 km/h (0 Bft) 100,00 %
10.10.2016 18:52 7,4 C 87 % 1020,1 hPa 0,0 l/m 0,2 km/h (0 Bft) O 98 0 min 0,000 mm 0,0 UV-I 0 W/m 5,4 C 7,4 C 1,6 km/h (1 Bft) 100,00 %
10.10.2016 18:54 7,4 C 88 % 1020,1 hPa 0,0 l/m 0,4 km/h (0 Bft) O 98 0 min 0,000 mm 0,0 UV-I 0 W/m 5,5 C 7,4 C 1,6 km/h (1 Bft) 100,00 %
10.10.2016 18:56 7,4 C 88 % 1020,2 hPa 0,0 l/m 1,1 km/h (1 Bft) O 98 0 min 0,000 mm 0,0 UV-I 0 W/m 5,5 C 7,4 C 3,2 km/h (1 Bft) 97,87 %
10.10.2016 18:58 7,4 C 87 % 1020,2 hPa 0,0 l/m 1,9 km/h (1 Bft) O 98 0 min 0,000 mm 0,0 UV-I 0 W/m 5,4 C 7,4 C 3,2 km/h (1 Bft) 100,00 %
10.10.2016 19:00 7,3 C 88 % 1020,2 hPa 0,0 l/m 0,8 km/h (0 Bft) O 98 0 min 0,000 mm 0,0 UV-I 0 W/m 5,4 C 7,3 C 1,6 km/h (1 Bft) 100,00 %
10.10.2016 19:02 7,3 C 88 % 1020,1 hPa 0,0 l/m 1,4 km/h (1 Bft) O 98 0 min 0,000 mm 0,0 UV-I 0 W/m 5,4 C 7,3 C 3,2 km/h (1 Bft) 100,00 %
10.10.2016 19:04 7,4 C 88 % 1020,1 hPa 0,0 l/m 0,5 km/h (0 Bft) O 98 0 min 0,000 mm 0,0 UV-I 0 W/m 5,5 C 7,4 C 1,6 km/h (1 Bft) 100,00 %
10.10.2016 19:06 7,4 C 88 % 1020,2 hPa 0,0 l/m 0,2 km/h (0 Bft) O 98 0 min 0,000 mm 0,0 UV-I 0 W/m 5,5 C 7,4 C 1,6 km/h (1 Bft) 97,87 %
10.10.2016 19:08 7,3 C 88 % 1020,2 hPa 0,0 l/m 0,8 km/h (0 Bft) O 98 0 min 0,000 mm 0,0 UV-I 0 W/m 5,4 C 7,3 C 1,6 km/h (1 Bft) 97,87 %
10.10.2016 19:10 7,3 C 88 % 1020,2 hPa 0,0 l/m 1,6 km/h (1 Bft) O 98 0 min 0,000 mm 0,0 UV-I 0 W/m 5,4 C 7,3 C 3,2 km/h (1 Bft) 100,00 %
10.10.2016 19:12 7,3 C 88 % 1020,2 hPa 0,0 l/m 1,4 km/h (1 Bft) O 98 0 min 0,000 mm 0,0 UV-I 0 W/m 5,4 C 7,3 C 3,2 km/h (1 Bft) 97,87 %
10.10.2016 19:14 7,3 C 88 % 1020,2 hPa 0,0 l/m 0,7 km/h (0 Bft) O 98 0 min 0,000 mm 0,0 UV-I 0 W/m 5,4 C 7,3 C 1,6 km/h (1 Bft) 100,00 %
10.10.2016 19:16 7,3 C 89 % 1020,2 hPa 0,0 l/m 1,0 km/h (0 Bft) O 98 0 min 0,000 mm 0,0 UV-I 0 W/m 5,6 C 7,3 C 3,2 km/h (1 Bft) 95,74 %
10.10.2016 19:18 7,3 C 89 % 1020,1 hPa 0,0 l/m 0,5 km/h (0 Bft) O 98 0 min 0,000 mm 0,0 UV-I 0 W/m 5,6 C 7,3 C 1,6 km/h (1 Bft) 100,00 %
10.10.2016 19:20 7,3 C 89 % 1020,1 hPa 0,0 l/m 0,7 km/h (0 Bft) O 98 0 min 0,000 mm 0,0 UV-I 0 W/m 5,6 C 7,3 C 3,2 km/h (1 Bft) 97,37 %
10.10.2016 19:22 7,3 C 89 % 1020,1 hPa 0,0 l/m 1,3 km/h (1 Bft) O 98 0 min 0,000 mm 0,0 UV-I 0 W/m 5,6 C 7,3 C 3,2 km/h (1 Bft) 100,00 %
10.10.2016 19:24 7,3 C 89 % 1020,1 hPa 0,0 l/m 3,0 km/h (1 Bft) O 98 0 min 0,000 mm 0,0 UV-I 0 W/m 5,6 C 7,3 C 4,8 km/h (1 Bft) 100,00 %
10.10.2016 19:26 7,3 C 89 % 1020,1 hPa 0,0 l/m 3,3 km/h (1 Bft) O 96 0 min 0,000 mm 0,0 UV-I 0 W/m 5,6 C 7,3 C 4,8 km/h (1 Bft) 100,00 %
10.10.2016 19:28 7,3 C 88 % 1020,1 hPa 0,0 l/m 3,1 km/h (1 Bft) O 96 0 min 0,000 mm 0,0 UV-I 0 W/m 5,4 C 7,3 C 4,8 km/h (1 Bft) 100,00 %
10.10.2016 19:30 7,3 C 88 % 1020,0 hPa 0,0 l/m 3,4 km/h (1 Bft) NO 53 0 min 0,000 mm 0,0 UV-I 0 W/m 5,4 C 7,3 C 6,4 km/h (2 Bft) 100,00 %
10.10.2016 19:32 7,3 C 88 % 1020,1 hPa 0,0 l/m 2,6 km/h (1 Bft) NO 53 0 min 0,000 mm 0,0 UV-I 0 W/m 5,4 C 7,3 C 3,2 km/h (1 Bft) 97,87 %
10.10.2016 19:34 7,3 C 88 % 1020,1 hPa 0,0 l/m 3,1 km/h (1 Bft) O-NO 63 0 min 0,000 mm 0,0 UV-I 0 W/m 5,4 C 7,3 C 4,8 km/h (1 Bft) 100,00 %
10.10.2016 19:36 7,2 C 88 % 1020,1 hPa 0,0 l/m 2,6 km/h (1 Bft) O-NO 63 0 min 0,000 mm 0,0 UV-I 0 W/m 5,3 C 7,2 C 4,8 km/h (1 Bft) 95,74 %
10.10.2016 19:38 7,2 C 89 % 1020,1 hPa 0,0 l/m 2,8 km/h (1 Bft) O-NO 63 0 min 0,000 mm 0,0 UV-I 0 W/m 5,5 C 7,2 C 4,8 km/h (1 Bft) 100,00 %
10.10.2016 19:40 7,2 C 88 % 1020,1 hPa 0,0 l/m 2,2 km/h (1 Bft) O-NO 63 0 min 0,000 mm 0,0 UV-I 0 W/m 5,3 C 7,2 C 3,2 km/h (1 Bft) 97,87 %
10.10.2016 19:42 7,2 C 88 % 1020,0 hPa 0,0 l/m 1,1 km/h (1 Bft) O-NO 63 0 min 0,000 mm 0,0 UV-I 0 W/m 5,3 C 7,2 C 3,2 km/h (1 Bft) 95,74 %
10.10.2016 19:44 7,2 C 88 % 1020,0 hPa 0,0 l/m 2,6 km/h (1 Bft) O-NO 63 0 min 0,000 mm 0,0 UV-I 0 W/m 5,3 C 7,2 C 4,8 km/h (1 Bft) 100,00 %
10.10.2016 19:46 7,2 C 88 % 1020,0 hPa 0,0 l/m 1,5 km/h (1 Bft) O-NO 63 0 min 0,000 mm 0,0 UV-I 0 W/m 5,3 C 7,2 C 3,2 km/h (1 Bft) 100,00 %
10.10.2016 19:48 7,1 C 88 % 1020,0 hPa 0,0 l/m 1,9 km/h (1 Bft) O-NO 63 0 min 0,000 mm 0,0 UV-I 0 W/m 5,2 C 7,1 C 3,2 km/h (1 Bft) 100,00 %
10.10.2016 19:50 7,1 C 88 % 1020,0 hPa 0,0 l/m 2,3 km/h (1 Bft) O-NO 63 0 min 0,000 mm 0,0 UV-I 0 W/m 5,2 C 7,1 C 3,2 km/h (1 Bft) 100,00 %
10.10.2016 19:52 7,1 C 89 % 1020,0 hPa 0,0 l/m 2,0 km/h (1 Bft) O-NO 63 0 min 0,000 mm 0,0 UV-I 0 W/m 5,4 C 7,1 C 3,2 km/h (1 Bft) 97,87 %
10.10.2016 19:54 7,1 C 89 % 1020,0 hPa 0,0 l/m 2,7 km/h (1 Bft) O-NO 63 0 min 0,000 mm 0,0 UV-I 0 W/m 5,4 C 7,1 C 3,2 km/h (1 Bft) 98,00 %
10.10.2016 19:56 7,0 C 89 % 1020,0 hPa 0,0 l/m 2,1 km/h (1 Bft) O-NO 63 0 min 0,000 mm 0,0 UV-I 0 W/m 5,3 C 7,0 C 3,2 km/h (1 Bft) 97,87 %
10.10.2016 19:58 7,0 C 89 % 1019,9 hPa 0,0 l/m 1,6 km/h (1 Bft) O-NO 63 0 min 0,000 mm 0,0 UV-I 0 W/m 5,3 C 7,0 C 3,2 km/h (1 Bft) 97,87 %
10.10.2016 20:00 7,0 C 89 % 1019,9 hPa 0,0 l/m 0,4 km/h (0 Bft) O-NO 63 0 min 0,000 mm 0,0 UV-I 0 W/m 5,3 C 7,0 C 1,6 km/h (1 Bft) 93,62 %
10.10.2016 20:02 6,9 C 90 % 1019,9 hPa 0,0 l/m 1,1 km/h (1 Bft) O-NO 63 0 min 0,000 mm 0,0 UV-I 0 W/m 5,4 C 6,9 C 3,2 km/h (1 Bft) 98,00 %
10.10.2016 20:04 6,9 C 90 % 1020,0 hPa 0,0 l/m 0,9 km/h (0 Bft) O-NO 63 0 min 0,000 mm 0,0 UV-I 0 W/m 5,4 C 6,9 C 3,2 km/h (1 Bft) 95,74 %
10.10.2016 20:06 6,9 C 90 % 1020,0 hPa 0,0 l/m 0,0 km/h (0 Bft) O-NO 63 0 min 0,000 mm 0,0 UV-I 0 W/m 5,4 C 6,9 C 0,0 km/h (0 Bft) 97,37 %
10.10.2016 20:08 6,9 C 90 % 1020,0 hPa 0,0 l/m 0,0 km/h (0 Bft) O-NO 63 0 min 0,000 mm 0,0 UV-I 0 W/m 5,4 C 6,9 C 0,0 km/h (0 Bft) 97,87 %
10.10.2016 20:10 6,8 C 90 % 1020,0 hPa 0,0 l/m 0,0 km/h (0 Bft) O-NO 63 0 min 0,000 mm 0,0 UV-I 0 W/m 5,3 C 6,8 C 0,0 km/h (0 Bft) 97,87 %
10.10.2016 20:12 6,8 C 91 % 1020,0 hPa 0,0 l/m 0,0 km/h (0 Bft) O-NO 63 0 min 0,000 mm 0,0 UV-I 0 W/m 5,4 C 6,8 C 0,0 km/h (0 Bft) 97,87 %
10.10.2016 20:14 6,8 C 91 % 1020,0 hPa 0,0 l/m 0,2 km/h (0 Bft) O-NO 63 0 min 0,000 mm 0,0 UV-I 0 W/m 5,4 C 6,8 C 1,6 km/h (1 Bft) 97,87 %
10.10.2016 20:16 6,8 C 91 % 1020,0 hPa 0,0 l/m 0,5 km/h (0 Bft) O-NO 63 0 min 0,000 mm 0,0 UV-I 0 W/m 5,4 C 6,8 C 1,6 km/h (1 Bft) 95,74 %
10.10.2016 20:18 6,8 C 91 % 1020,0 hPa 0,0 l/m 1,1 km/h (1 Bft) O-NO 63 0 min 0,000 mm 0,0 UV-I 0 W/m 5,4 C 6,8 C 1,6 km/h (1 Bft) 95,74 %
10.10.2016 20:20 6,8 C 91 % 1020,0 hPa 0,0 l/m 0,6 km/h (0 Bft) O-NO 63 0 min 0,000 mm 0,0 UV-I 0 W/m 5,4 C 6,8 C 1,6 km/h (1 Bft) 98,00 %
10.10.2016 20:22 6,8 C 91 % 1020,0 hPa 0,0 l/m 0,2 km/h (0 Bft) O-NO 63 0 min 0,000 mm 0,0 UV-I 0 W/m 5,4 C 6,8 C 1,6 km/h (1 Bft) 97,87 %
10.10.2016 20:24 6,8 C 91 % 1020,0 hPa 0,0 l/m 0,4 km/h (0 Bft) O-NO 63 0 min 0,000 mm 0,0 UV-I 0 W/m 5,4 C 6,8 C 3,2 km/h (1 Bft) 97,87 %
10.10.2016 20:26 6,8 C 91 % 1020,0 hPa 0,0 l/m 0,0 km/h (0 Bft) O-NO 63 0 min 0,000 mm 0,0 UV-I 0 W/m 5,4 C 6,8 C 0,0 km/h (0 Bft) 97,87 %
10.10.2016 20:28 6,8 C 91 % 1020,0 hPa 0,0 l/m 0,5 km/h (0 Bft) O-NO 63 0 min 0,000 mm 0,0 UV-I 0 W/m 5,4 C 6,8 C 1,6 km/h (1 Bft) 97,87 %
10.10.2016 20:30 6,8 C 90 % 1020,0 hPa 0,0 l/m 1,4 km/h (1 Bft) O-NO 63 0 min 0,000 mm 0,0 UV-I 0 W/m 5,3 C 6,8 C 3,2 km/h (1 Bft) 97,87 %
10.10.2016 20:32 6,7 C 91 % 1020,0 hPa 0,0 l/m 2,1 km/h (1 Bft) O-NO 63 0 min 0,000 mm 0,0 UV-I 0 W/m 5,3 C 6,7 C 3,2 km/h (1 Bft) 100,00 %
10.10.2016 20:34 6,7 C 91 % 1019,9 hPa 0,0 l/m 3,3 km/h (1 Bft) O-NO 63 0 min 0,000 mm 0,0 UV-I 0 W/m 5,3 C 6,7 C 4,8 km/h (1 Bft) 100,00 %
10.10.2016 20:36 6,6 C 91 % 1019,9 hPa 0,0 l/m 3,9 km/h (1 Bft) O-NO 73 0 min 0,000 mm 0,0 UV-I 0 W/m 5,2 C 6,6 C 6,4 km/h (2 Bft) 97,87 %
10.10.2016 20:38 6,6 C 91 % 1019,9 hPa 0,0 l/m 3,4 km/h (1 Bft) O-NO 73 0 min 0,000 mm 0,0 UV-I 0 W/m 5,2 C 6,6 C 4,8 km/h (1 Bft) 97,37 %
10.10.2016 20:40 6,7 C 91 % 1020,0 hPa 0,0 l/m 3,5 km/h (1 Bft) O-NO 73 0 min 0,000 mm 0,0 UV-I 0 W/m 5,3 C 6,7 C 4,8 km/h (1 Bft) 100,00 %
10.10.2016 20:42 6,7 C 91 % 1019,9 hPa 0,0 l/m 3,3 km/h (1 Bft) O-NO 73 0 min 0,000 mm 0,0 UV-I 0 W/m 5,3 C 6,7 C 4,8 km/h (1 Bft) 97,87 %
10.10.2016 20:44 6,7 C 91 % 1020,0 hPa 0,0 l/m 3,7 km/h (1 Bft) O-NO 73 0 min 0,000 mm 0,0 UV-I 0 W/m 5,3 C 6,7 C 4,8 km/h (1 Bft) 97,87 %
10.10.2016 20:46 6,7 C 91 % 1020,0 hPa 0,0 l/m 4,0 km/h (1 Bft) O-NO 74 0 min 0,000 mm 0,0 UV-I 0 W/m 5,3 C 6,7 C 6,4 km/h (2 Bft) 97,87 %
10.10.2016 20:48 6,7 C 91 % 1020,0 hPa 0,0 l/m 4,2 km/h (1 Bft) O-NO 78 0 min 0,000 mm 0,0 UV-I 0 W/m 5,3 C 6,7 C 6,4 km/h (2 Bft) 98,00 %
10.10.2016 20:50 6,7 C 91 % 1020,0 hPa 0,0 l/m 4,4 km/h (1 Bft) O 92 0 min 0,000 mm 0,0 UV-I 0 W/m 5,3 C 6,7 C 6,4 km/h (2 Bft) 100,00 %
10.10.2016 20:52 6,7 C 91 % 1020,0 hPa 0,0 l/m 3,5 km/h (1 Bft) O 93 0 min 0,000 mm 0,0 UV-I 0 W/m 5,3 C 6,7 C 6,4 km/h (2 Bft) 100,00 %
10.10.2016 20:54 6,7 C 91 % 1020,0 hPa 0,0 l/m 3,7 km/h (1 Bft) O 93 0 min 0,000 mm 0,0 UV-I 0 W/m 5,3 C 6,7 C 4,8 km/h (1 Bft) 100,00 %
10.10.2016 20:56 6,7 C 91 % 1020,0 hPa 0,0 l/m 3,1 km/h (1 Bft) O 93 0 min 0,000 mm 0,0 UV-I 0 W/m 5,3 C 6,7 C 4,8 km/h (1 Bft) 98,00 %
10.10.2016 20:58 6,6 C 91 % 1020,0 hPa 0,0 l/m 3,7 km/h (1 Bft) O 93 0 min 0,000 mm 0,0 UV-I 0 W/m 5,2 C 6,6 C 6,4 km/h (2 Bft) 97,87 %
10.10.2016 21:00 6,6 C 92 % 1020,0 hPa 0,0 l/m 3,2 km/h (1 Bft) O 93 0 min 0,000 mm 0,0 UV-I 0 W/m 5,4 C 6,6 C 4,8 km/h (1 Bft) 100,00 %
10.10.2016 21:02 6,6 C 92 % 1020,0 hPa 0,0 l/m 3,0 km/h (1 Bft) O 79 0 min 0,000 mm 0,0 UV-I 0 W/m 5,4 C 6,6 C 4,8 km/h (1 Bft) 100,00 %
10.10.2016 21:04 6,7 C 92 % 1020,0 hPa 0,0 l/m 4,2 km/h (1 Bft) O 84 0 min 0,000 mm 0,0 UV-I 0 W/m 5,5 C 6,7 C 6,4 km/h (2 Bft) 100,00 %
10.10.2016 21:06 6,7 C 92 % 1020,0 hPa 0,0 l/m 3,8 km/h (1 Bft) O 88 0 min 0,000 mm 0,0 UV-I 0 W/m 5,5 C 6,7 C 8,0 km/h (2 Bft) 100,00 %
10.10.2016 21:08 6,8 C 91 % 1020,0 hPa 0,0 l/m 4,1 km/h (1 Bft) O 88 0 min 0,000 mm 0,0 UV-I 0 W/m 5,4 C 6,8 C 6,4 km/h (2 Bft) 100,00 %
10.10.2016 21:10 6,8 C 91 % 1020,0 hPa 0,0 l/m 3,4 km/h (1 Bft) O 88 0 min 0,000 mm 0,0 UV-I 0 W/m 5,4 C 6,8 C 4,8 km/h (1 Bft) 100,00 %
10.10.2016 21:12 6,8 C 91 % 1020,0 hPa 0,0 l/m 3,2 km/h (1 Bft) O 82 0 min 0,000 mm 0,0 UV-I 0 W/m 5,4 C 6,8 C 4,8 km/h (1 Bft) 97,87 %
10.10.2016 21:14 6,8 C 91 % 1020,0 hPa 0,0 l/m 2,6 km/h (1 Bft) O 82 0 min 0,000 mm 0,0 UV-I 0 W/m 5,4 C 6,8 C 4,8 km/h (1 Bft) 97,87 %
10.10.2016 21:16 6,8 C 91 % 1020,0 hPa 0,0 l/m 2,1 km/h (1 Bft) O 82 0 min 0,000 mm 0,0 UV-I 0 W/m 5,4 C 6,8 C 4,8 km/h (1 Bft) 100,00 %
10.10.2016 21:20 6,8 C 91 % 1020,0 hPa 0,0 l/m 3,0 km/h (1 Bft) O 80 0 min 0,000 mm 0,0 UV-I 0 W/m 5,4 C 6,8 C 4,8 km/h (1 Bft) 98,96 %
10.10.2016 21:24 6,8 C 92 % 1020,0 hPa 0,0 l/m 2,2 km/h (1 Bft) O 80 0 min 0,000 mm 0,0 UV-I 0 W/m 5,6 C 6,8 C 3,2 km/h (1 Bft) 98,91 %
10.10.2016 21:26 6,7 C 92 % 1020,0 hPa 0,0 l/m 1,0 km/h (0 Bft) O 80 0 min 0,000 mm 0,0 UV-I 0 W/m 5,5 C 6,7 C 3,2 km/h (1 Bft) 100,00 %
10.10.2016 21:28 6,7 C 92 % 1020,0 hPa 0,0 l/m 0,0 km/h (0 Bft) O 80 0 min 0,000 mm 0,0 UV-I 0 W/m 5,5 C 6,7 C 0,0 km/h (0 Bft) 100,00 %
10.10.2016 21:30 6,6 C 93 % 1019,9 hPa 0,0 l/m 0,0 km/h (0 Bft) O 90 0 min 0,000 mm 0,0 UV-I 0 W/m 5,6 C 6,6 C 1,6 km/h (1 Bft) 100,00 %
10.10.2016 21:35 6,5 C 93 % 1019,9 hPa 0,0 l/m 0,0 km/h (0 Bft) N 0 0 min 0,000 mm 0,0 UV-I 0 W/m 5,5 C 6,5 C 0,0 km/h (0 Bft) 97,37 %
10.10.2016 21:38 6,5 C 93 % 1019,9 hPa 0,0 l/m 0,1 km/h (0 Bft) O 80 0 min 0,000 mm 0,0 UV-I 0 W/m 5,5 C 6,5 C 1,6 km/h (1 Bft) 99,15 %
10.10.2016 21:40 6,4 C 93 % 1019,9 hPa 0,0 l/m 0,0 km/h (0 Bft) O 80 0 min 0,000 mm 0,0 UV-I 0 W/m 5,4 C 6,4 C 0,0 km/h (0 Bft) 97,87 %
10.10.2016 21:42 6,4 C 93 % 1019,9 hPa 0,0 l/m 0,0 km/h (0 Bft) O 80 0 min 0,000 mm 0,0 UV-I 0 W/m 5,4 C 6,4 C 0,0 km/h (0 Bft) 100,00 %
10.10.2016 21:44 6,5 C 93 % 1019,9 hPa 0,0 l/m 0,0 km/h (0 Bft) O 80 0 min 0,000 mm 0,0 UV-I 0 W/m 5,5 C 6,5 C 0,0 km/h (0 Bft) 97,87 %
10.10.2016 21:46 6,5 C 93 % 1019,9 hPa 0,0 l/m 0,0 km/h (0 Bft) O 80 0 min 0,000 mm 0,0 UV-I 0 W/m 5,5 C 6,5 C 0,0 km/h (0 Bft) 100,00 %
10.10.2016 21:48 6,5 C 93 % 1019,9 hPa 0,0 l/m 0,0 km/h (0 Bft) O 80 0 min 0,000 mm 0,0 UV-I 0 W/m 5,5 C 6,5 C 0,0 km/h (0 Bft) 100,00 %
10.10.2016 21:50 6,5 C 93 % 1019,9 hPa 0,0 l/m 0,0 km/h (0 Bft) O 80 0 min 0,000 mm 0,0 UV-I 0 W/m 5,5 C 6,5 C 0,0 km/h (0 Bft) 100,00 %
10.10.2016 21:52 6,5 C 93 % 1019,9 hPa 0,0 l/m 0,0 km/h (0 Bft) O 80 0 min 0,000 mm 0,0 UV-I 0 W/m 5,5 C 6,5 C 0,0 km/h (0 Bft) 97,87 %
10.10.2016 21:54 6,5 C 93 % 1019,9 hPa 0,0 l/m 0,0 km/h (0 Bft) O 80 0 min 0,000 mm 0,0 UV-I 0 W/m 5,5 C 6,5 C 0,0 km/h (0 Bft) 100,00 %
10.10.2016 21:56 6,4 C 93 % 1019,9 hPa 0,0 l/m 0,0 km/h (0 Bft) O 80 0 min 0,000 mm 0,0 UV-I 0 W/m 5,4 C 6,4 C 0,0 km/h (0 Bft) 97,87 %
10.10.2016 21:58 6,4 C 93 % 1019,9 hPa 0,0 l/m 0,0 km/h (0 Bft) O 80 0 min 0,000 mm 0,0 UV-I 0 W/m 5,4 C 6,4 C 1,6 km/h (1 Bft) 100,00 %
10.10.2016 22:00 6,5 C 93 % 1019,9 hPa 0,0 l/m 0,5 km/h (0 Bft) O 80 0 min 0,000 mm 0,0 UV-I 0 W/m 5,5 C 6,5 C 1,6 km/h (1 Bft) 93,62 %
10.10.2016 22:02 6,4 C 93 % 1019,9 hPa 0,0 l/m 0,0 km/h (0 Bft) O 80 0 min 0,000 mm 0,0 UV-I 0 W/m 5,4 C 6,4 C 1,6 km/h (1 Bft) 97,87 %
10.10.2016 22:04 6,5 C 93 % 1019,9 hPa 0,0 l/m 0,0 km/h (0 Bft) O 80 0 min 0,000 mm 0,0 UV-I 0 W/m 5,5 C 6,5 C 0,0 km/h (0 Bft) 95,74 %
10.10.2016 22:06 6,5 C 93 % 1019,9 hPa 0,0 l/m 0,0 km/h (0 Bft) O 80 0 min 0,000 mm 0,0 UV-I 0 W/m 5,5 C 6,5 C 0,0 km/h (0 Bft) 91,49 %
10.10.2016 22:08 6,4 C 93 % 1019,9 hPa 0,0 l/m 0,0 km/h (0 Bft) O 80 0 min 0,000 mm 0,0 UV-I 0 W/m 5,4 C 6,4 C 0,0 km/h (0 Bft) 93,62 %
10.10.2016 22:10 6,4 C 93 % 1019,9 hPa 0,0 l/m 0,0 km/h (0 Bft) O 80 0 min 0,000 mm 0,0 UV-I 0 W/m 5,4 C 6,4 C 0,0 km/h (0 Bft) 97,87 %
10.10.2016 22:12 6,4 C 94 % 1019,8 hPa 0,0 l/m 0,0 km/h (0 Bft) O 80 0 min 0,000 mm 0,0 UV-I 0 W/m 5,5 C 6,4 C 0,0 km/h (0 Bft) 97,87 %
10.10.2016 22:14 6,4 C 94 % 1019,8 hPa 0,0 l/m 0,0 km/h (0 Bft) O 80 0 min 0,000 mm 0,0 UV-I 0 W/m 5,5 C 6,4 C 0,0 km/h (0 Bft) 93,62 %
10.10.2016 22:16 6,4 C 94 % 1019,8 hPa 0,0 l/m 0,0 km/h (0 Bft) O 80 0 min 0,000 mm 0,0 UV-I 0 W/m 5,5 C 6,4 C 0,0 km/h (0 Bft) 97,87 %
10.10.2016 22:18 6,4 C 94 % 1019,8 hPa 0,0 l/m 0,0 km/h (0 Bft) O 80 0 min 0,000 mm 0,0 UV-I 0 W/m 5,5 C 6,4 C 0,0 km/h (0 Bft) 97,87 %
10.10.2016 22:20 6,4 C 94 % 1019,8 hPa 0,0 l/m 0,0 km/h (0 Bft) O 80 0 min 0,000 mm 0,0 UV-I 0 W/m 5,5 C 6,4 C 0,0 km/h (0 Bft) 95,74 %
10.10.2016 22:22 6,4 C 94 % 1019,8 hPa 0,0 l/m 0,0 km/h (0 Bft) O 80 0 min 0,000 mm 0,0 UV-I 0 W/m 5,5 C 6,4 C 0,0 km/h (0 Bft) 97,87 %
10.10.2016 22:24 6,4 C 94 % 1019,9 hPa 0,0 l/m 0,0 km/h (0 Bft) O 80 0 min 0,000 mm 0,0 UV-I 0 W/m 5,5 C 6,4 C 1,6 km/h (1 Bft) 97,87 %
10.10.2016 22:26 6,4 C 94 % 1019,8 hPa 0,0 l/m 0,0 km/h (0 Bft) O 80 0 min 0,000 mm 0,0 UV-I 0 W/m 5,5 C 6,4 C 0,0 km/h (0 Bft) 95,74 %
10.10.2016 22:28 6,4 C 94 % 1019,8 hPa 0,0 l/m 0,0 km/h (0 Bft) O 80 0 min 0,000 mm 0,0 UV-I 0 W/m 5,5 C 6,4 C 0,0 km/h (0 Bft) 98,00 %
10.10.2016 22:30 6,4 C 94 % 1019,9 hPa 0,0 l/m 0,0 km/h (0 Bft) O 80 0 min 0,000 mm 0,0 UV-I 0 W/m 5,5 C 6,4 C 0,0 km/h (0 Bft) 97,87 %
10.10.2016 22:32 6,4 C 95 % 1019,8 hPa 0,0 l/m 0,0 km/h (0 Bft) O 80 0 min 0,000 mm 0,0 UV-I 0 W/m 5,7 C 6,4 C 0,0 km/h (0 Bft) 100,00 %
10.10.2016 22:34 6,3 C 94 % 1019,8 hPa 0,0 l/m 0,0 km/h (0 Bft) O 80 0 min 0,000 mm 0,0 UV-I 0 W/m 5,4 C 6,3 C 0,0 km/h (0 Bft) 97,87 %
10.10.2016 22:36 6,4 C 95 % 1019,8 hPa 0,0 l/m 0,0 km/h (0 Bft) O 80 0 min 0,000 mm 0,0 UV-I 0 W/m 5,7 C 6,4 C 0,0 km/h (0 Bft) 100,00 %
10.10.2016 22:38 6,4 C 95 % 1019,9 hPa 0,0 l/m 0,0 km/h (0 Bft) O 80 0 min 0,000 mm 0,0 UV-I 0 W/m 5,7 C 6,4 C 0,0 km/h (0 Bft) 100,00 %
10.10.2016 22:40 6,4 C 95 % 1019,9 hPa 0,0 l/m 0,2 km/h (0 Bft) O 80 0 min 0,000 mm 0,0 UV-I 0 W/m 5,7 C 6,4 C 1,6 km/h (1 Bft) 97,87 %
10.10.2016 22:42 6,4 C 95 % 1019,8 hPa 0,0 l/m 0,1 km/h (0 Bft) O 80 0 min 0,000 mm 0,0 UV-I 0 W/m 5,7 C 6,4 C 1,6 km/h (1 Bft) 100,00 %
10.10.2016 22:44 6,4 C 95 % 1019,8 hPa 0,0 l/m 0,4 km/h (0 Bft) O 80 0 min 0,000 mm 0,0 UV-I 0 W/m 5,7 C 6,4 C 3,2 km/h (1 Bft) 100,00 %
10.10.2016 22:46 6,4 C 95 % 1019,8 hPa 0,0 l/m 1,6 km/h (1 Bft) O 80 0 min 0,000 mm 0,0 UV-I 0 W/m 5,7 C 6,4 C 3,2 km/h (1 Bft) 97,87 %
10.10.2016 22:48 6,4 C 94 % 1019,8 hPa 0,0 l/m 0,5 km/h (0 Bft) O 80 0 min 0,000 mm 0,0 UV-I 0 W/m 5,5 C 6,4 C 3,2 km/h (1 Bft) 100,00 %
10.10.2016 22:50 6,4 C 95 % 1019,8 hPa 0,0 l/m 0,7 km/h (0 Bft) O 80 0 min 0,000 mm 0,0 UV-I 0 W/m 5,7 C 6,4 C 1,6 km/h (1 Bft) 100,00 %
10.10.2016 22:52 6,4 C 94 % 1019,7 hPa 0,0 l/m 0,2 km/h (0 Bft) O 80 0 min 0,000 mm 0,0 UV-I 0 W/m 5,5 C 6,4 C 1,6 km/h (1 Bft) 100,00 %
10.10.2016 22:54 6,4 C 94 % 1019,7 hPa 0,0 l/m 0,0 km/h (0 Bft) O 80 0 min 0,000 mm 0,0 UV-I 0 W/m 5,5 C 6,4 C 0,0 km/h (0 Bft) 100,00 %
10.10.2016 22:56 6,4 C 94 % 1019,7 hPa 0,0 l/m 0,8 km/h (0 Bft) O 80 0 min 0,000 mm 0,0 UV-I 0 W/m 5,5 C 6,4 C 3,2 km/h (1 Bft) 100,00 %
10.10.2016 22:58 6,4 C 94 % 1019,7 hPa 0,0 l/m 0,4 km/h (0 Bft) O 80 0 min 0,000 mm 0,0 UV-I 0 W/m 5,5 C 6,4 C 1,6 km/h (1 Bft) 95,74 %
10.10.2016 23:00 6,4 C 94 % 1019,8 hPa 0,0 l/m 0,0 km/h (0 Bft) O 80 0 min 0,000 mm 0,0 UV-I 0 W/m 5,5 C 6,4 C 0,0 km/h (0 Bft) 100,00 %
10.10.2016 23:02 6,4 C 94 % 1019,7 hPa 0,0 l/m 0,0 km/h (0 Bft) O 80 0 min 0,000 mm 0,0 UV-I 0 W/m 5,5 C 6,4 C 0,0 km/h (0 Bft) 97,87 %
10.10.2016 23:04 6,4 C 94 % 1019,7 hPa 0,0 l/m 0,0 km/h (0 Bft) O 80 0 min 0,000 mm 0,0 UV-I 0 W/m 5,5 C 6,4 C 0,0 km/h (0 Bft) 100,00 %
10.10.2016 23:06 6,4 C 94 % 1019,7 hPa 0,0 l/m 0,0 km/h (0 Bft) O 80 0 min 0,000 mm 0,0 UV-I 0 W/m 5,5 C 6,4 C 0,0 km/h (0 Bft) 100,00 %
10.10.2016 23:08 6,3 C 94 % 1019,7 hPa 0,0 l/m 0,0 km/h (0 Bft) O 80 0 min 0,000 mm 0,0 UV-I 0 W/m 5,4 C 6,3 C 0,0 km/h (0 Bft) 97,87 %
10.10.2016 23:10 6,3 C 95 % 1019,7 hPa 0,0 l/m 0,0 km/h (0 Bft) O 80 0 min 0,000 mm 0,0 UV-I 0 W/m 5,6 C 6,3 C 0,0 km/h (0 Bft) 98,00 %
10.10.2016 23:12 6,3 C 95 % 1019,7 hPa 0,0 l/m 0,0 km/h (0 Bft) O 80 0 min 0,000 mm 0,0 UV-I 0 W/m 5,6 C 6,3 C 0,0 km/h (0 Bft) 100,00 %
10.10.2016 23:14 6,3 C 95 % 1019,7 hPa 0,0 l/m 0,0 km/h (0 Bft) O 80 0 min 0,000 mm 0,0 UV-I 0 W/m 5,6 C 6,3 C 0,0 km/h (0 Bft) 100,00 %
10.10.2016 23:16 6,3 C 95 % 1019,7 hPa 0,0 l/m 0,0 km/h (0 Bft) O 80 0 min 0,000 mm 0,0 UV-I 0 W/m 5,6 C 6,3 C 0,0 km/h (0 Bft) 100,00 %
10.10.2016 23:18 6,3 C 95 % 1019,7 hPa 0,0 l/m 0,6 km/h (0 Bft) O 80 0 min 0,000 mm 0,0 UV-I 0 W/m 5,6 C 6,3 C 1,6 km/h (1 Bft) 97,87 %
10.10.2016 23:20 6,4 C 95 % 1019,7 hPa 0,0 l/m 0,5 km/h (0 Bft) O 80 0 min 0,000 mm 0,0 UV-I 0 W/m 5,7 C 6,4 C 1,6 km/h (1 Bft) 97,87 %
10.10.2016 23:22 6,4 C 95 % 1019,7 hPa 0,0 l/m 0,8 km/h (0 Bft) O 80 0 min 0,000 mm 0,0 UV-I 0 W/m 5,7 C 6,4 C 3,2 km/h (1 Bft) 98,00 %
10.10.2016 23:24 6,4 C 95 % 1019,7 hPa 0,0 l/m 0,5 km/h (0 Bft) O 80 0 min 0,000 mm 0,0 UV-I 0 W/m 5,7 C 6,4 C 1,6 km/h (1 Bft) 100,00 %
10.10.2016 23:26 6,4 C 95 % 1019,7 hPa 0,0 l/m 0,1 km/h (0 Bft) O 80 0 min 0,000 mm 0,0 UV-I 0 W/m 5,7 C 6,4 C 1,6 km/h (1 Bft) 100,00 %
10.10.2016 23:28 6,4 C 95 % 1019,6 hPa 0,0 l/m 0,0 km/h (0 Bft) O 80 0 min 0,000 mm 0,0 UV-I 0 W/m 5,7 C 6,4 C 0,0 km/h (0 Bft) 100,00 %
10.10.2016 23:30 6,4 C 95 % 1019,6 hPa 0,0 l/m 0,0 km/h (0 Bft) O 80 0 min 0,000 mm 0,0 UV-I 0 W/m 5,7 C 6,4 C 0,0 km/h (0 Bft) 100,00 %
10.10.2016 23:32 6,4 C 95 % 1019,6 hPa 0,0 l/m 0,0 km/h (0 Bft) O 80 0 min 0,000 mm 0,0 UV-I 0 W/m 5,7 C 6,4 C 0,0 km/h (0 Bft) 100,00 %
10.10.2016 23:34 6,4 C 94 % 1019,6 hPa 0,0 l/m 0,0 km/h (0 Bft) O 80 0 min 0,000 mm 0,0 UV-I 0 W/m 5,5 C 6,4 C 0,0 km/h (0 Bft) 95,74 %
10.10.2016 23:36 6,4 C 94 % 1019,6 hPa 0,0 l/m 0,0 km/h (0 Bft) O 80 0 min 0,000 mm 0,0 UV-I 0 W/m 5,5 C 6,4 C 0,0 km/h (0 Bft) 100,00 %
10.10.2016 23:38 6,5 C 95 % 1019,6 hPa 0,0 l/m 0,2 km/h (0 Bft) O 80 0 min 0,000 mm 0,0 UV-I 0 W/m 5,8 C 6,5 C 1,6 km/h (1 Bft) 100,00 %
10.10.2016 23:40 6,5 C 94 % 1019,6 hPa 0,0 l/m 2,1 km/h (1 Bft) O 80 0 min 0,000 mm 0,0 UV-I 0 W/m 5,6 C 6,5 C 3,2 km/h (1 Bft) 100,00 %
10.10.2016 23:42 6,5 C 94 % 1019,6 hPa 0,0 l/m 2,9 km/h (1 Bft) O 80 0 min 0,000 mm 0,0 UV-I 0 W/m 5,6 C 6,5 C 3,2 km/h (1 Bft) 100,00 %
10.10.2016 23:44 6,6 C 94 % 1019,5 hPa 0,0 l/m 3,5 km/h (1 Bft) O 80 0 min 0,000 mm 0,0 UV-I 0 W/m 5,7 C 6,6 C 4,8 km/h (1 Bft) 100,00 %
10.10.2016 23:46 6,6 C 94 % 1019,6 hPa 0,0 l/m 4,1 km/h (1 Bft) O 80 0 min 0,000 mm 0,0 UV-I 0 W/m 5,7 C 6,6 C 6,4 km/h (2 Bft) 100,00 %
10.10.2016 23:48 6,6 C 94 % 1019,6 hPa 0,0 l/m 4,4 km/h (1 Bft) O-NO 78 0 min 0,000 mm 0,0 UV-I 0 W/m 5,7 C 6,6 C 6,4 km/h (2 Bft) 100,00 %
10.10.2016 23:50 6,6 C 94 % 1019,6 hPa 0,0 l/m 3,0 km/h (1 Bft) O-NO 78 0 min 0,000 mm 0,0 UV-I 0 W/m 5,7 C 6,6 C 4,8 km/h (1 Bft) 95,74 %
10.10.2016 23:52 6,6 C 94 % 1019,6 hPa 0,0 l/m 3,4 km/h (1 Bft) O-NO 78 0 min 0,000 mm 0,0 UV-I 0 W/m 5,7 C 6,6 C 4,8 km/h (1 Bft) 100,00 %
10.10.2016 23:54 6,6 C 94 % 1019,5 hPa 0,0 l/m 2,5 km/h (1 Bft) O-NO 78 0 min 0,000 mm 0,0 UV-I 0 W/m 5,7 C 6,6 C 4,8 km/h (1 Bft) 98,00 %
10.10.2016 23:56 6,6 C 93 % 1019,5 hPa 0,0 l/m 2,8 km/h (1 Bft) O-NO 78 0 min 0,000 mm 0,0 UV-I 0 W/m 5,6 C 6,6 C 4,8 km/h (1 Bft) 100,00 %
10.10.2016 23:58 6,6 C 93 % 1019,5 hPa 0,0 l/m 3,1 km/h (1 Bft) O-NO 78 0 min 0,000 mm 0,0 UV-I 0 W/m 5,6 C 6,6 C 4,8 km/h (1 Bft) 100,00 %
_ Min-Zeit 05:36 15:04 23:44 - 00:00 - - - - - - 05:36 05:36 00:00 11:02
Minimum _ 1,6 C 66 % 1019,5 hPa - 0,0 km/h (0 Bft) - - - - - - 1,2 C 1,6 C 0,0 km/h (0 Bft) 91,49 %
_ Max-Zeit 15:16 06:46 00:52 06:34 16:32 - - 11:22 13:00 12:40 12:42 11:36 14:20 16:00 00:04
Maximum _ 11,2 C 98 % 1023,2 hPa 0,2 l/m 20,0 km/h
N (4 Bft)
- - 2 min 0,254 mm 2,1 UV-I 788 W/m 7,0 C 10,2 C 27,4 km/h
N-NO (4 Bft)
100,00 %
Durchschnitt _ 5,8 C 90 % 1021,6 hPa #0,2 l/m 3,9 km/h (1 Bft) O-NO - #5:06 h #1,270 mm 1,2 UV-I 221 W/m 4,2 C 5,1 C 6,5 km/h (2 Bft) 98,32 %